ECMWFFLT1_sfc_temp_000.txt.gz
Temp
69 68 70 70 71 71 69 70 70 70 72 72 71 72 71 71 71 70 70 70 71 72 71 69 69 70 70 71 70 70 69 68 67 64 62 63 61 60 62 62 64 63 62 63 63 60 57 56 58 62 63 64 64 65 67 68 69 69 67 67 69 68 67
71 71 72 72 70 71 69 69 70 71 70 71 72 71 70 71 70 69 69 68 68 69 71 70 69 70 68 67 67 66 66 66 66 66 65 64 64 62 62 62 63 63 62 62 62 61 58 56 58 60 60 63 63 63 65 67 69 69 69 69 69 69 67
71 71 71 69 69 69 69 69 68 68 68 69 69 70 69 71 69 69 69 68 67 68 68 68 67 67 66 66 66 66 66 65 65 65 63 64 65 64 65 64 62 62 60 61 61 60 61 60 57 60 61 60 58 61 64 64 66 68 70 70 69 71 70
70 70 68 68 68 69 68 69 68 68 68 68 68 69 68 69 68 69 68 68 68 68 68 68 66 67 66 66 66 66 65 64 63 63 63 63 63 62 63 62 61 62 60 60 60 62 61 60 58 59 61 64 63 60 62 65 65 69 71 70 70 71 71
71 71 69 68 69 69 68 68 68 68 68 68 67 67 68 68 68 67 68 67 67 67 67 67 68 68 67 67 66 65 65 64 64 63 62 61 61 61 61 61 61 62 61 60 61 61 60 59 59 58 59 62 64 65 69 65 67 67 68 71 72 72 72
71 71 70 69 70 69 69 69 68 67 67 67 66 67 67 67 67 67 67 66 66 66 67 66 66 67 66 66 66 65 64 63 62 62 60 60 61 59 60 61 62 62 61 61 62 61 61 60 60 57 61 63 57 59 65 66 64 68 70 71 72 73 74
71 71 70 71 70 70 70 69 69 68 67 67 67 66 68 68 68 68 68 67 66 66 67 67 68 68 67 68 66 64 64 64 64 63 62 61 61 61 61 60 61 60 60 62 61 62 61 60 58 57 57 58 59 60 65 66 68 66 69 72 74 75 73
71 71 71 72 71 70 70 70 70 69 68 69 68 68 69 68 68 68 67 66 67 66 66 66 68 67 66 66 66 64 64 65 64 63 62 61 62 62 61 61 61 60 60 61 60 60 62 60 59 58 56 54 55 57 57 65 66 67 68 71 74 74 73
72 72 71 72 71 70 70 70 70 69 70 69 69 69 68 68 68 67 67 67 67 66 66 66 67 66 67 65 65 65 64 68 64 63 62 62 61 60 61 61 61 60 61 60 62 60 61 60 60 59 58 56 53 52 56 56 60 63 71 68 71 74 75
72 71 71 71 71 71 71 71 70 70 71 70 70 69 68 68 68 67 67 66 66 66 66 67 66 66 66 66 65 64 63 66 64 64 63 61 62 61 62 62 60 60 60 60 61 60 60 60 60 60 60 58 57 53 52 52 55 56 65 70 64 68 73
73 73 73 72 71 71 71 71 71 71 70 71 70 70 68 68 68 68 66 66 66 66 66 67 67 66 66 65 65 65 65 64 63 64 64 63 62 62 61 61 61 60 60 60 60 59 59 58 58 60 59 60 60 55 54 51 52 58 60 65 68 67 71
74 73 74 72 72 72 71 71 71 70 71 70 70 69 68 68 67 67 67 66 66 66 66 66 66 65 66 64 65 64 64 64 63 63 63 63 63 62 62 62 60 60 60 59 59 60 60 60 58 60 59 60 59 59 56 55 51 56 62 60 63 69 68
73 73 71 71 72 72 73 73 72 70 70 71 70 70 69 69 68 67 67 67 67 66 66 66 66 65 66 65 65 65 64 65 64 63 63 63 66 63 61 62 61 60 60 60 60 60 60 59 60 60 59 59 59 59 58 55 52 53 59 60 61 65 69
71 71 70 70 68 69 71 72 73 72 72 70 70 70 70 69 69 68 69 68 68 66 66 65 65 65 65 64 64 64 65 65 65 63 63 62 65 64 63 63 61 61 63 59 59 60 61 62 60 60 60 60 58 59 57 55 53 54 57 60 60 63 66
70 70 69 67 67 68 67 68 71 72 71 70 70 70 71 69 69 70 69 69 68 68 68 67 65 65 65 64 63 65 64 64 64 64 62 62 61 64 62 61 63 61 62 62 61 64 64 63 64 62 61 60 60 59 60 58 54 53 53 57 57 61 62
71 71 70 67 67 67 67 68 69 65 68 70 71 70 70 69 70 70 69 69 69 68 68 67 66 65 65 64 64 63 63 62 62 61 61 61 64 63 61 60 61 61 62 60 60 60 60 62 63 64 60 61 60 59 60 60 56 54 54 55 57 59 60
71 71 69 69 68 68 68 68 69 68 70 67 69 68 70 70 70 69 68 69 69 68 69 67 67 67 67 66 65 64 63 62 63 62 62 62 64 62 61 60 61 61 60 58 59 60 60 61 60 60 60 60 59 59 58 59 58 56 55 54 55 59 60
68 66 66 65 65 66 65 65 65 66 67 66 66 63 64 65 67 68 68 69 70 69 69 69 68 66 65 65 65 64 64 63 63 63 62 62 63 62 61 60 62 61 60 59 59 59 60 59 62 59 58 59 59 59 59 58 57 58 55 54 55 58 59
67 66 65 64 63 64 65 65 62 62 62 62 61 62 63 63 63 63 67 69 69 70 70 69 69 68 67 65 64 64 64 63 63 63 62 63 63 62 62 61 61 62 61 58 58 59 58 59 59 58 58 59 59 58 56 56 57 56 56 55 55 55 56
67 66 66 65 64 65 63 63 64 63 61 62 62 61 61 61 61 61 62 66 70 70 70 70 68 68 68 67 65 65 63 63 63 62 62 62 63 61 61 62 61 61 61 60 59 59 58 57 57 56 56 55 58 56 55 55 56 56 55 55 56 56 56
67 68 67 66 66 65 63 61 62 62 61 61 61 62 62 62 64 66 66 68 70 69 69 69 70 69 68 67 65 64 63 62 63 62 61 61 61 61 60 61 61 61 60 59 56 54 54 52 53 52 53 54 54 53 52 52 53 53 53 54 53 52 53
67 67 69 69 68 67 65 63 63 63 64 64 63 64 64 64 63 63 65 68 70 69 69 70 70 68 67 66 65 63 62 63 62 61 60 61 61 61 61 60 61 60 56 54 52 52 51 52 52 51 51 51 51 51 50 51 51 50 51 52 52 54 52
68 67 67 67 69 69 68 67 67 66 65 65 65 65 65 63 61 62 64 67 66 65 65 67 65 60 60 66 65 65 63 63 63 61 60 59 58 59 60 59 58 55 53 52 49 47 46 47 49 51 51 50 49 49 48 48 47 48 49 48 49 50 50
69 69 67 68 68 69 69 67 66 67 66 66 65 65 66 63 61 61 64 63 65 64 65 66 58 51 52 56 64 62 62 62 61 61 59 58 58 58 57 60 56 54 53 52 51 47 47 45 44 45 46 47 49 49 48 46 46 47 47 48 49 49 48
68 67 68 67 66 67 66 66 67 67 66 67 66 67 65 66 66 65 63 64 63 62 63 58 54 50 48 50 56 62 62 61 61 60 60 60 59 58 58 58 57 57 56 55 55 51 48 45 44 43 43 43 43 43 44 48 47 46 46 46 47 47 48
68 66 66 66 65 65 65 66 66 66 66 66 65 64 64 65 65 65 65 64 62 61 58 47 48 49 48 49 51 56 61 60 60 58 59 59 59 56 54 55 58 57 60 57 57 55 53 50 45 44 44 43 43 42 41 41 43 48 49 47 47 47 47
66 65 65 65 65 65 65 64 65 65 66 65 65 65 64 64 64 64 64 63 60 57 55 46 44 46 46 46 49 53 59 59 59 60 60 58 53 53 52 53 56 57 56 55 55 55 55 53 51 48 46 46 47 47 43 42 41 41 43 46 47 47 49
65 65 65 65 65 65 63 63 63 64 65 65 64 63 63 62 63 63 63 60 56 55 53 43 44 45 44 45 47 50 57 58 59 58 57 56 56 55 55 57 57 56 57 57 56 55 54 54 53 51 49 49 49 49 49 49 48 47 46 46 46 48 49
65 65 65 65 64 63 63 63 62 63 64 65 64 63 63 63 62 62 63 58 55 53 48 41 42 43 42 43 47 54 56 57 57 57 56 57 56 56 57 56 55 54 55 55 50 49 51 53 52 51 49 48 48 48 49 50 48 49 50 50 49 49 50
64 65 65 64 63 63 63 62 62 63 62 63 63 63 62 64 64 62 61 57 55 52 48 43 41 41 42 44 48 53 55 55 55 56 55 56 56 56 56 56 56 56 55 54 44 43 46 49 50 49 48 47 48 48 48 51 48 46 44 43 43 43 43
65 64 64 63 63 63 63 62 62 63 62 62 62 62 63 63 62 60 56 55 54 52 48 42 40 41 42 44 47 51 52 54 53 54 56 56 57 55 56 56 56 55 55 52 40 41 41 47 48 47 47 46 46 46 47 49 51 51 48 47 45 44 42
66 64 63 63 63 62 62 62 62 62 62 63 62 64 63 62 57 57 55 53 52 52 48 43 40 40 41 42 45 47 51 51 50 50 51 52 55 55 53 55 51 48 45 39 38 38 39 43 46 46 45 44 44 44 46 47 47 46 45 45 45 46 46
63 63 63 63 64 62 63 62 61 61 61 63 62 62 62 60 56 54 53 53 52 51 48 46 43 39 41 42 43 47 49 49 50 51 53 53 54 54 55 48 40 39 39 38 37 38 38 40 42 43 43 42 42 42 45 43 44 44 44 44 44 45 45
63 64 64 63 63 63 63 61 60 60 61 62 61 59 58 57 56 53 54 53 51 50 49 47 43 39 40 41 40 42 47 48 47 47 49 51 53 53 54 47 44 39 39 39 38 38 40 39 40 41 41 41 43 43 41 42 43 43 42 43 43 43 44
63 64 64 64 62 61 62 61 61 61 61 60 59 56 56 54 53 52 51 51 51 50 49 48 46 39 39 40 40 40 46 47 44 46 48 50 52 52 53 49 44 39 37 39 39 40 40 39 37 40 41 40 40 39 41 42 42 42 42 42 41 41 42
62 64 62 61 60 60 61 60 60 60 60 58 56 54 52 52 50 50 50 50 49 49 49 47 43 43 39 39 39 39 40 43 42 44 47 48 49 50 51 48 42 39 38 38 38 39 39 38 38 39 39 38 38 38 38 39 40 41 40 41 41 41 41
62 62 61 61 60 59 59 59 60 59 57 56 54 53 52 51 51 49 48 48 49 49 48 47 43 42 41 38 39 38 38 37 40 47 47 47 49 50 49 47 43 39 40 40 41 41 40 39 39 39 38 38 38 38 38 40 40 41 40 40 40 40 41

ECMWFFLT1_sfc_temp_003.txt.gz
Temp
61 61 62 62 63 63 63 63 64 63 63 63 63 64 64 64 64 63 63 62 63 66 65 63 62 62 64 65 64 63 63 62 61 59 57 57 57 58 58 58 58 58 59 59 59 56 54 53 53 57 60 61 61 62 63 64 65 65 64 65 66 66 66
64 63 63 64 63 63 61 60 61 62 62 63 63 63 63 64 64 62 61 61 62 63 64 64 63 63 62 61 61 61 61 60 61 60 59 58 58 56 56 57 58 56 57 57 57 57 55 53 52 55 55 59 60 61 62 63 65 65 65 66 66 67 67
63 62 63 62 62 61 60 60 61 61 60 60 61 60 61 62 62 63 61 60 59 61 62 61 62 62 61 60 60 60 60 59 58 59 59 58 58 57 57 58 57 56 55 55 55 56 56 57 54 54 55 55 54 56 59 61 62 63 64 65 67 69 68
62 62 61 61 61 61 61 60 60 60 60 60 60 61 61 61 61 61 61 61 62 62 62 62 60 61 60 59 60 60 59 58 56 57 58 57 57 57 57 56 55 56 55 54 54 54 53 52 50 51 53 57 56 55 58 62 62 63 65 65 66 68 68
64 63 62 61 62 62 61 60 59 59 59 60 59 59 59 60 60 60 61 61 61 60 60 59 60 60 60 60 59 58 58 57 57 57 56 56 56 55 55 54 54 55 55 55 56 54 54 53 53 51 52 56 56 57 63 61 64 62 63 65 68 69 68
64 64 63 62 62 62 61 60 60 59 58 59 58 60 58 59 59 59 60 59 61 62 61 61 60 61 61 59 60 58 57 57 55 55 54 53 54 54 53 54 55 56 55 55 56 55 54 54 54 50 52 56 52 53 58 60 58 63 63 64 66 68 68
64 64 63 63 62 63 63 62 61 60 60 60 59 59 60 60 59 60 59 58 58 58 60 59 60 60 59 60 58 57 56 55 55 54 54 53 53 53 54 54 54 54 53 55 54 55 54 54 51 51 51 50 51 53 57 57 61 60 62 65 67 69 68
65 64 64 64 63 63 63 63 62 61 61 60 60 60 60 59 59 60 59 58 59 58 59 60 61 58 58 60 59 57 57 56 56 56 54 54 56 55 53 53 55 52 53 54 53 54 55 54 54 54 51 50 47 46 50 54 57 57 59 64 67 68 67
65 65 64 63 64 65 64 63 62 62 62 61 61 61 59 60 60 60 59 57 57 58 59 58 58 59 59 59 58 58 58 60 57 56 54 54 53 54 53 53 54 53 53 54 55 54 54 55 55 54 53 50 48 44 47 47 50 53 61 61 63 66 68
64 64 64 64 64 64 65 64 63 62 62 62 62 61 60 60 60 60 59 58 58 58 59 58 57 57 57 58 56 56 57 57 57 56 54 54 54 55 54 53 52 53 54 53 54 54 54 53 55 54 54 54 53 47 45 46 45 49 54 60 59 60 66
65 64 63 63 64 63 63 63 63 62 62 63 64 62 62 61 61 62 59 59 57 58 58 58 58 57 57 57 56 56 57 56 56 56 55 55 54 54 54 54 53 54 54 53 55 56 55 55 54 54 54 54 53 51 50 47 45 49 52 57 58 58 62
65 64 64 64 63 63 63 62 64 63 63 63 63 61 62 61 61 59 60 58 58 58 57 57 57 57 56 57 56 56 56 55 55 55 56 56 56 55 55 57 53 55 54 55 54 54 54 55 54 55 54 54 53 53 52 50 46 47 54 54 55 60 61
63 64 65 63 64 64 64 63 63 63 63 64 63 62 62 62 61 60 59 59 59 57 57 57 57 56 56 57 56 59 56 56 56 55 56 56 60 56 55 57 55 55 55 54 53 54 54 53 54 56 54 54 53 54 53 52 48 50 51 54 54 58 61
63 63 64 63 63 64 64 63 64 64 64 64 63 62 63 62 62 61 61 60 60 57 57 57 57 56 56 56 55 56 56 56 56 55 55 56 58 56 56 56 55 56 56 56 52 54 54 54 54 55 54 55 53 52 54 53 50 50 49 50 55 57 60
62 62 62 62 61 61 61 60 62 63 64 64 64 63 63 63 62 62 61 61 60 59 58 57 56 57 56 56 55 58 58 56 55 55 54 55 55 58 54 54 55 55 57 57 54 56 57 56 57 55 55 55 53 54 52 53 50 49 51 49 53 56 57
63 61 62 60 60 60 60 60 61 61 62 61 60 61 61 62 63 63 62 61 60 60 60 60 59 58 57 57 58 56 58 56 54 54 54 55 56 56 56 56 55 54 56 57 54 53 54 55 56 56 54 54 54 52 55 55 52 51 50 50 51 54 54
62 61 61 60 59 59 60 60 61 61 61 61 60 59 61 61 61 59 59 59 59 60 61 60 59 60 60 58 58 57 57 56 55 54 56 55 55 55 54 54 53 53 54 55 54 53 53 54 54 53 53 53 53 53 53 52 53 52 49 50 48 53 55
60 60 59 59 59 59 59 59 59 59 59 58 58 58 58 58 58 59 59 59 60 59 59 60 60 60 60 59 59 58 58 57 56 55 56 56 57 56 55 55 54 52 52 52 52 53 53 52 55 52 51 52 53 52 52 52 52 52 50 50 50 52 53
60 59 58 58 58 58 58 58 57 57 59 58 57 57 58 58 59 59 59 59 60 60 61 60 61 61 61 60 58 58 58 58 58 56 56 57 56 56 55 54 53 53 52 52 51 51 53 53 52 51 51 51 52 51 49 50 50 50 50 49 49 49 51
59 59 58 58 58 58 58 57 57 57 57 58 58 57 57 58 58 59 59 59 59 60 60 60 61 62 62 61 60 58 58 58 58 57 57 57 55 56 56 54 52 52 52 51 51 51 48 48 50 48 49 48 50 49 48 48 49 48 48 47 48 49 49
57 57 59 59 59 58 57 57 57 58 57 57 58 58 58 59 58 59 59 60 61 61 61 62 63 63 63 62 60 59 58 58 58 57 56 55 55 55 54 54 53 52 51 50 49 47 48 47 47 47 46 47 46 46 46 46 45 45 45 45 44 44 45
58 58 58 59 59 58 56 55 57 57 56 56 57 56 57 58 58 58 59 61 62 61 61 62 64 64 62 63 62 61 59 59 58 56 55 55 53 54 53 52 51 50 52 53 51 50 50 50 48 49 46 45 45 44 43 43 45 43 43 43 44 45 45
60 59 58 58 58 57 57 56 57 56 56 56 56 56 57 59 59 59 60 60 60 60 61 62 60 57 58 63 62 63 60 59 58 56 56 55 53 53 54 52 53 54 52 51 49 46 46 48 49 48 46 46 47 45 43 43 42 42 43 42 41 42 42
56 57 58 56 56 58 59 58 56 57 57 57 57 57 57 57 57 58 59 59 59 60 60 62 55 51 50 53 61 61 60 59 58 57 56 55 54 53 52 52 51 52 52 51 48 43 44 46 46 47 47 48 48 45 43 43 41 42 42 42 43 42 40
55 55 55 55 55 56 57 57 57 57 58 58 58 58 56 56 57 56 57 57 57 58 59 55 51 50 49 48 53 60 59 58 57 56 56 55 54 54 54 54 51 52 52 51 50 47 46 45 45 43 43 43 44 45 45 45 44 42 41 41 41 41 41
55 54 55 56 56 55 56 57 57 57 56 57 56 56 56 57 57 57 56 56 56 56 56 51 47 47 47 46 47 54 59 59 58 56 55 55 55 54 54 53 52 52 55 54 53 49 47 46 45 43 43 44 43 42 40 39 41 44 43 41 41 41 42
54 54 56 57 58 58 57 57 58 58 59 59 58 57 56 55 54 54 54 53 50 47 48 42 43 44 46 44 46 51 56 55 55 55 55 54 53 51 51 51 51 51 52 53 54 51 48 47 47 45 43 42 41 44 43 41 41 40 41 42 42 42 44
54 54 53 54 56 57 57 54 54 53 56 58 58 58 57 56 55 53 48 49 47 45 44 41 40 41 42 43 45 47 54 55 54 52 52 51 51 51 49 50 50 51 51 52 52 51 49 48 45 46 43 42 42 43 43 43 43 42 42 43 42 43 44
51 52 53 52 53 54 53 54 55 52 53 53 55 56 54 54 52 51 48 48 45 43 42 40 41 42 44 44 46 51 51 51 51 51 51 51 50 49 50 51 51 51 51 51 49 46 48 49 46 44 43 41 41 41 42 45 45 45 46 45 45 45 45
52 51 51 52 52 51 53 53 52 51 53 50 51 53 52 53 50 50 48 47 45 43 41 40 42 43 43 43 45 49 50 49 49 50 49 50 51 52 53 52 52 51 51 52 46 43 43 47 46 44 43 41 42 42 43 44 45 43 42 42 41 41 41
53 52 50 52 51 50 50 50 51 49 54 50 50 51 50 48 47 50 48 46 45 43 39 41 41 42 42 42 45 47 46 46 46 47 47 48 50 52 53 54 53 51 48 43 37 38 39 42 40 39 39 39 39 38 39 41 43 43 42 42 42 42 42
52 51 51 51 50 51 51 52 49 50 50 49 49 48 49 48 46 45 46 46 48 44 40 40 41 41 42 43 45 46 47 46 46 46 47 48 49 49 45 42 44 43 43 41 38 39 39 41 39 38 37 36 36 36 37 36 38 38 39 39 40 41 42
51 52 51 49 49 50 49 52 52 50 48 49 49 48 47 47 46 44 45 45 45 43 41 39 40 41 41 42 44 47 47 46 44 45 47 48 48 46 43 43 41 38 38 39 38 38 38 39 39 38 37 36 35 36 37 36 38 38 37 37 37 38 39
52 50 50 51 50 50 50 52 50 51 49 49 45 47 47 45 45 43 43 43 43 42 42 41 39 40 41 41 42 43 43 43 44 45 46 46 47 45 43 42 41 39 38 38 39 39 39 40 40 38 37 36 36 38 38 36 38 40 37 37 37 37 38
52 54 52 50 49 50 49 49 51 49 48 46 46 46 44 44 44 43 42 41 41 41 42 43 40 39 40 40 41 43 44 44 45 46 44 44 45 45 42 41 41 39 38 38 38 39 40 39 38 38 36 38 38 38 38 37 37 36 35 35 34 35 35
51 54 53 52 52 49 47 49 49 49 48 44 46 44 43 42 42 41 41 41 40 40 39 41 41 39 39 39 39 40 41 42 39 44 43 43 43 44 44 42 41 39 38 39 40 39 39 38 38 37 37 37 37 37 37 36 34 35 33 34 35 35 36
51 51 50 50 49 48 47 48 49 47 46 46 44 43 42 42 41 40 40 39 40 38 38 38 40 40 39 38 39 39 39 38 39 43 45 44 44 43 42 39 40 39 37 38 39 39 38 38 37 37 37 37 37 37 35 35 33 34 34 33 34 35 37

ECMWFFLT1_sfc_temp_006.txt.gz
Temp
58 58 57 57 57 59 59 58 59 59 60 60 60 60 60 60 60 59 59 60 60 61 61 59 59 59 60 60 60 59 58 59 58 58 55 55 57 56 56 57 57 57 57 56 53 53 51 51 51 54 55 57 57 58 59 61 61 61 61 62 63 65 65
59 59 58 59 58 59 57 57 59 58 58 58 59 59 59 60 60 58 58 59 59 60 62 60 58 59 59 58 57 57 57 56 57 57 57 55 55 55 56 55 56 56 56 56 56 54 53 50 49 50 52 54 53 55 57 58 60 61 61 62 63 65 66
59 58 58 57 57 56 57 57 56 57 57 57 57 58 59 59 58 59 58 58 58 59 60 59 59 58 58 57 57 57 57 56 55 56 55 54 55 54 55 55 53 53 53 53 52 51 52 53 51 51 50 50 51 53 53 58 60 61 61 61 62 65 66
59 58 57 56 56 56 57 55 56 56 56 56 56 57 57 58 58 59 58 57 58 59 59 59 57 57 56 56 57 57 56 56 54 54 55 54 55 55 54 54 53 54 54 52 53 51 51 49 46 48 47 51 51 50 54 58 59 60 62 61 61 63 65
60 60 59 57 57 57 56 56 55 55 55 57 55 56 56 56 58 56 57 56 57 56 56 56 57 57 56 56 55 55 54 53 54 55 54 53 53 52 52 52 52 53 52 52 52 51 49 51 49 47 48 50 48 50 56 57 57 61 62 64 65 65 65
61 60 60 59 58 57 56 56 55 55 54 56 55 57 54 55 57 57 57 56 56 57 56 56 55 55 55 54 55 53 52 52 51 52 52 50 51 52 51 50 51 53 52 51 51 50 49 50 48 48 48 51 50 47 49 53 56 57 60 63 65 65 65
61 60 61 61 59 58 58 58 57 57 56 57 56 56 56 55 56 57 57 55 55 54 55 55 55 55 55 55 54 54 53 51 51 51 50 49 49 48 49 50 50 50 49 50 50 52 51 49 47 48 48 45 46 47 48 50 53 56 58 61 63 65 64
62 61 61 61 60 59 58 58 58 57 57 56 57 57 55 56 55 55 55 55 55 55 55 55 57 55 54 55 54 53 53 52 52 52 50 52 54 51 49 50 52 50 50 50 50 51 51 51 51 51 48 49 45 41 45 47 49 52 55 58 61 63 64
63 62 62 61 60 60 60 59 58 58 58 58 57 57 56 57 56 56 56 55 54 55 55 55 55 56 55 55 54 54 53 55 54 52 51 52 51 49 49 48 51 50 50 51 51 50 50 51 51 49 48 46 46 43 42 43 44 47 53 57 56 60 63
61 61 62 61 61 60 60 58 58 59 59 59 58 57 57 56 56 56 56 55 55 54 54 55 55 54 55 56 54 52 53 53 54 53 51 53 51 50 49 50 50 50 51 50 50 50 50 49 50 50 50 49 46 45 43 41 40 44 48 55 55 55 61
62 62 61 61 60 60 59 58 56 57 58 60 60 59 58 57 56 59 56 55 53 54 55 54 54 54 55 53 54 54 54 52 52 52 52 52 51 52 51 50 50 52 51 50 52 51 51 51 50 50 49 49 45 47 46 45 42 43 46 48 54 54 58
63 63 62 61 60 59 59 58 58 59 58 59 59 58 57 57 57 56 57 55 54 54 53 54 54 54 54 53 52 53 52 52 52 52 52 53 53 52 51 51 50 52 51 52 50 50 50 50 51 50 50 50 49 48 47 46 44 43 48 51 48 53 54
64 63 63 61 60 60 60 59 58 57 59 59 59 59 59 59 58 57 57 57 56 54 53 53 53 53 53 54 54 55 52 52 52 52 52 52 56 51 51 51 51 52 51 49 50 51 50 51 51 51 50 51 49 49 50 48 47 49 47 51 51 54 56
63 64 63 63 62 62 61 60 60 61 60 59 59 59 59 59 59 59 58 58 58 56 55 54 53 53 54 52 52 53 51 52 53 52 52 52 54 52 52 52 51 52 52 51 51 51 51 51 51 51 50 50 51 50 50 50 48 50 49 46 49 53 55
63 63 63 62 63 62 61 60 61 60 60 60 60 61 60 59 59 59 59 59 58 57 56 56 54 54 55 53 52 54 54 52 52 52 51 52 51 53 51 52 52 52 52 53 51 54 52 52 53 52 52 52 49 50 49 51 46 46 48 50 51 52 53
61 61 62 61 61 61 60 61 61 61 61 60 60 61 60 59 59 59 59 58 58 57 57 56 55 55 54 55 54 53 54 52 53 52 51 52 52 52 51 50 50 50 53 53 52 51 50 51 52 52 51 50 50 49 49 50 48 46 46 47 46 52 52
61 60 61 60 60 59 59 60 61 61 61 60 59 57 57 58 58 58 57 56 56 57 57 56 55 56 57 55 55 55 54 53 52 53 54 53 52 52 52 50 50 49 51 52 52 51 48 48 49 49 49 49 48 48 48 47 47 48 44 46 44 50 51
59 57 56 55 56 56 58 60 60 61 59 59 58 58 56 56 57 57 57 57 57 56 56 56 56 56 56 55 56 56 55 55 54 53 54 54 55 53 52 53 51 49 49 51 50 51 48 48 50 49 48 49 49 48 48 47 46 46 45 45 44 44 48
55 55 57 57 57 57 55 56 56 57 59 58 56 56 57 57 58 57 57 57 58 58 58 58 58 58 57 56 56 55 55 55 55 55 53 53 54 54 54 53 51 50 50 51 50 48 47 47 47 47 46 47 47 46 46 46 46 45 45 43 43 43 44
55 56 57 58 58 57 56 56 56 55 55 55 55 54 54 55 56 56 56 56 57 57 57 57 57 57 58 57 56 55 54 54 55 55 54 54 54 53 54 54 52 51 51 51 50 48 46 45 46 45 46 45 46 45 45 43 44 44 43 43 42 42 43
55 56 56 56 56 56 56 56 55 55 55 55 56 55 55 55 55 55 56 57 57 57 56 55 56 56 57 57 56 57 57 56 55 55 54 54 54 53 53 53 53 52 52 51 50 48 47 47 46 45 44 45 44 44 43 42 42 42 42 42 40 40 40
56 57 57 57 56 55 55 56 56 56 55 55 55 54 55 56 56 56 56 55 55 55 55 56 57 57 57 58 58 57 58 57 57 56 55 54 53 53 53 52 52 51 53 53 51 50 49 49 48 48 45 43 42 42 43 40 41 41 41 41 41 41 40
56 56 56 56 57 57 56 56 56 56 57 57 57 56 56 57 57 58 58 55 53 54 55 55 56 54 55 58 57 59 58 58 58 57 56 55 53 52 53 52 54 55 53 51 49 47 46 47 49 49 47 46 44 42 43 43 41 40 40 40 39 39 40
53 55 55 54 55 55 55 55 54 55 55 56 56 56 56 55 54 55 55 53 52 53 54 56 52 49 47 48 55 55 56 56 57 56 56 56 54 53 52 52 51 53 52 51 49 46 46 45 44 45 46 46 46 44 41 42 40 40 43 40 40 39 38
53 52 53 54 55 55 54 53 52 52 52 53 54 54 54 54 54 52 53 52 51 52 52 52 46 45 45 44 46 53 56 56 55 55 56 55 54 53 52 51 50 51 50 49 48 47 46 44 43 43 43 43 43 44 44 44 43 41 38 39 39 39 37
53 52 53 52 50 49 49 50 50 51 51 53 51 52 52 51 51 51 51 51 50 51 51 41 41 45 46 45 44 46 53 55 55 55 55 53 53 54 53 50 50 51 52 52 51 47 47 45 44 42 43 43 42 41 40 40 43 45 41 39 39 38 38
51 50 50 49 48 48 49 50 50 50 50 51 51 50 49 50 51 50 50 50 51 44 43 43 41 45 46 45 44 44 52 53 54 53 52 52 54 53 50 50 49 49 48 49 47 45 46 45 43 42 41 40 41 43 41 40 39 40 42 43 41 40 40
50 49 48 48 47 46 47 47 49 47 48 48 47 48 49 49 48 49 48 45 43 41 43 41 41 41 42 42 42 46 50 50 49 49 49 50 50 49 49 49 49 48 48 47 48 47 46 45 44 43 41 41 40 40 41 41 40 40 39 40 38 39 40
48 47 47 46 47 47 45 46 50 48 45 45 46 49 49 46 46 44 44 43 41 39 41 41 41 41 42 42 43 46 46 46 46 46 47 48 49 49 49 49 49 48 48 48 47 45 46 45 44 43 42 41 39 38 39 42 42 41 41 39 39 40 39
49 47 47 48 47 48 50 51 50 47 49 43 44 44 45 44 45 45 43 41 40 38 40 42 41 42 42 43 44 46 45 45 45 46 46 46 46 47 48 49 48 47 45 43 39 39 42 46 42 41 39 36 36 37 38 40 41 40 40 41 41 41 40
50 48 46 48 47 46 44 45 46 45 51 49 46 44 44 43 44 44 44 41 42 41 40 42 41 41 42 43 45 45 45 44 43 44 44 44 46 45 46 50 49 45 43 42 38 39 39 40 38 37 36 35 35 35 36 36 39 40 41 41 40 40 40
49 48 48 47 45 45 45 46 47 44 44 43 45 42 42 42 41 41 41 41 46 42 39 41 41 41 42 43 44 43 44 43 42 42 44 44 44 42 43 43 44 43 43 41 39 39 39 40 38 37 36 37 38 36 35 34 34 35 36 37 37 38 38
47 47 49 46 44 47 45 45 47 45 41 43 42 40 41 41 40 39 40 41 41 39 40 39 39 40 41 42 43 44 44 44 42 41 43 44 42 41 42 43 41 38 38 39 38 38 39 40 39 37 37 38 39 37 34 34 36 36 34 35 34 34 35
47 47 45 46 45 45 45 47 43 48 44 40 41 41 40 39 40 39 39 38 37 38 39 38 38 40 41 41 41 42 41 41 41 42 43 42 41 41 40 39 40 39 39 39 38 38 39 39 40 39 36 35 34 36 37 34 34 39 34 33 34 35 35
49 50 45 44 46 47 45 45 45 44 41 40 41 40 38 39 39 38 37 37 36 36 41 42 37 39 40 41 40 41 42 40 42 43 41 40 39 38 38 37 38 39 38 38 38 38 38 38 38 39 36 36 36 37 35 36 34 33 33 34 32 32 33
49 49 47 46 48 48 44 46 46 42 40 40 40 39 38 38 38 37 36 36 35 35 36 40 41 39 39 40 40 40 40 40 40 41 41 40 39 39 40 41 41 39 37 37 38 38 38 38 38 37 37 36 36 36 36 34 33 33 31 32 33 32 32
46 47 45 42 44 45 44 43 44 44 41 41 40 39 37 38 37 37 36 35 36 36 36 36 40 40 39 39 40 39 38 38 39 41 41 38 39 41 41 40 40 38 37 37 38 38 37 38 36 36 36 36 36 37 34 33 32 33 32 31 30 31 32

ECMWFFLT1_sfc_temp_009.txt.gz
Temp
58 57 55 55 54 55 55 55 55 55 55 56 56 55 56 57 57 56 56 56 57 58 60 56 56 56 58 58 59 57 57 57 57 57 56 57 56 55 57 56 56 57 56 55 53 54 50 48 50 53 52 54 54 55 56 57 59 59 59 59 59 60 60
57 57 56 57 56 55 55 54 54 55 54 55 56 56 55 57 58 56 56 56 57 57 58 57 56 56 56 55 55 56 56 55 56 55 56 54 53 53 55 55 55 54 53 53 54 53 50 47 46 47 49 50 50 52 54 56 58 58 58 59 60 62 61
57 56 55 55 54 54 55 53 54 55 54 54 54 55 55 56 57 57 57 57 56 57 58 56 55 55 54 54 53 55 55 54 53 55 55 53 53 52 54 54 52 51 52 51 50 50 51 51 51 49 47 47 49 51 50 57 58 59 61 61 61 62 62
57 56 55 53 53 53 55 52 53 54 54 54 55 54 55 55 55 56 56 56 57 59 57 56 55 55 53 54 54 54 54 54 52 53 53 52 52 52 51 52 50 50 53 51 52 49 50 48 45 46 43 45 49 48 53 53 56 59 61 60 60 61 61
57 57 57 56 55 55 53 53 52 52 53 53 53 53 53 54 56 54 55 54 55 54 54 54 54 54 54 53 53 53 52 51 52 53 51 51 51 51 50 49 49 50 50 50 50 47 49 49 47 46 45 45 45 46 51 51 52 57 58 60 61 61 61
58 58 58 56 55 55 53 52 52 53 51 53 53 55 52 53 56 54 54 54 53 54 53 53 51 52 52 51 52 51 50 50 49 50 50 48 50 50 48 47 49 50 49 47 49 48 47 47 48 47 46 47 48 45 45 49 53 52 56 58 60 61 61
59 58 57 57 56 55 54 54 53 53 53 54 53 54 54 52 54 55 54 52 52 51 52 51 51 50 51 52 51 51 50 49 49 49 49 48 48 47 48 49 49 49 47 49 48 49 47 46 45 46 46 42 43 43 43 47 49 53 55 55 58 61 61
61 59 58 58 57 55 54 55 54 53 53 54 53 54 52 52 52 52 52 52 52 52 52 53 54 52 52 53 52 51 50 49 50 50 49 50 51 48 47 48 49 47 47 47 48 49 50 50 48 48 46 48 43 38 43 42 44 50 51 53 56 60 60
61 60 58 58 57 57 55 56 55 54 54 53 53 53 52 53 53 53 53 52 51 52 52 52 52 53 52 52 51 51 51 52 51 50 49 50 49 48 47 46 49 47 47 47 48 48 48 49 49 46 46 46 45 42 40 42 41 44 47 54 51 55 60
60 59 59 57 57 56 56 55 55 54 53 53 55 53 53 52 54 54 53 52 52 52 52 52 52 51 51 53 52 50 51 49 52 50 49 51 48 48 47 48 49 48 49 48 48 49 49 47 48 47 47 47 44 42 42 41 40 42 45 49 53 51 57
61 60 60 59 57 56 54 55 54 55 54 54 53 55 53 53 53 57 53 53 52 52 53 52 52 52 52 51 51 51 51 49 50 49 49 49 48 48 49 48 48 50 49 47 49 48 48 48 48 49 47 46 47 47 43 43 42 40 43 44 48 51 53
61 61 60 60 58 57 56 55 56 56 54 53 55 54 52 53 54 54 54 52 52 53 52 53 52 52 52 52 51 51 50 51 51 50 49 50 49 50 48 49 48 50 49 48 48 48 48 48 47 48 46 48 48 45 45 43 44 42 46 48 46 48 51
61 61 60 59 59 58 58 57 56 54 55 55 53 54 53 53 54 53 53 53 52 52 52 52 52 51 51 53 52 52 51 50 51 51 49 50 52 49 48 49 50 50 48 47 49 49 49 49 48 47 47 48 46 45 44 45 45 46 44 48 48 50 51
61 61 60 60 60 60 58 58 57 57 55 55 54 53 53 53 53 53 53 53 53 52 52 51 50 52 52 51 52 52 50 51 52 49 50 49 50 48 49 49 49 50 48 47 48 49 50 49 50 50 49 48 48 46 47 45 46 45 45 45 46 49 51
61 60 60 60 60 60 59 58 57 55 56 56 55 56 55 53 54 53 53 53 52 52 53 53 51 52 53 52 51 52 52 51 51 50 50 51 49 51 49 49 49 48 49 48 48 49 49 50 51 50 49 49 48 49 47 49 45 45 45 45 46 48 49
58 58 58 58 58 58 58 58 59 58 57 56 55 56 56 55 54 53 53 54 53 52 53 53 51 52 52 52 51 51 51 51 52 51 51 51 52 49 48 49 49 48 49 49 47 46 47 50 49 49 48 48 48 46 47 47 47 45 44 44 43 48 47
59 57 57 56 56 55 56 57 58 58 58 56 56 54 55 54 54 53 53 53 52 53 53 53 52 51 53 53 52 52 50 50 51 52 53 52 51 50 51 49 49 47 48 49 48 46 46 47 48 48 47 46 47 46 45 45 46 45 43 44 43 46 46
56 56 55 54 53 53 54 54 55 54 54 54 54 55 55 55 55 54 55 55 54 53 54 53 53 52 52 52 53 53 52 51 51 51 52 53 53 52 51 51 51 47 48 49 47 46 46 46 47 47 46 46 46 46 45 45 44 44 44 43 43 40 43
54 54 54 53 52 53 54 55 55 54 54 54 53 54 54 54 54 54 53 54 53 54 53 53 53 52 53 54 54 53 53 52 52 51 51 51 53 52 52 51 50 49 49 51 50 46 45 45 45 45 45 46 45 44 43 42 42 42 43 41 42 41 39
54 54 54 54 55 55 55 55 56 55 55 55 54 54 55 54 54 54 54 54 54 55 55 54 52 52 53 53 53 53 51 51 51 51 52 52 53 53 52 52 50 49 51 51 50 48 46 44 46 44 45 45 44 43 43 42 42 42 41 41 38 39 40
55 55 55 56 55 55 55 55 54 54 55 55 55 56 55 55 55 55 55 54 55 55 55 55 53 52 52 52 51 51 50 50 50 50 50 51 51 52 53 53 52 51 52 52 51 48 48 47 44 44 43 43 42 42 42 41 41 40 40 39 39 38 37
55 56 56 56 56 56 55 55 55 55 55 55 55 55 55 56 56 56 56 56 56 55 55 55 55 54 53 52 52 52 52 52 52 52 52 52 52 52 52 52 52 51 53 54 52 51 50 49 47 45 43 41 41 42 40 40 40 39 38 39 39 38 37
56 55 55 56 56 56 55 55 55 55 56 55 55 55 55 55 55 55 56 56 55 55 55 54 54 51 51 53 51 53 52 52 52 52 52 52 51 51 52 52 53 54 53 53 50 47 46 47 50 49 46 42 43 42 39 38 38 38 40 41 39 38 39
56 55 56 56 55 55 55 54 54 54 55 55 55 55 55 55 55 55 56 55 54 54 54 54 48 45 47 46 50 51 52 52 51 52 52 52 52 52 51 51 50 52 52 51 49 45 45 45 45 45 46 46 46 44 41 39 38 37 41 40 37 38 38
53 53 53 52 53 54 54 54 54 55 55 54 55 54 54 54 55 54 54 53 52 53 52 47 43 46 45 44 46 50 51 52 52 51 52 52 52 52 51 50 49 50 50 50 49 47 47 44 43 43 43 43 42 43 44 43 40 38 37 38 37 38 36
51 50 51 52 52 53 53 53 53 53 53 53 51 52 53 52 53 52 52 52 52 50 49 44 42 44 44 44 44 45 49 50 51 51 51 51 50 51 50 49 47 48 50 53 51 49 50 48 44 43 43 43 42 41 41 42 43 42 39 38 39 37 36
49 50 50 50 50 52 52 52 51 50 51 50 51 51 50 51 51 50 51 50 48 44 43 44 41 42 43 43 42 43 45 46 47 48 49 49 49 48 47 48 47 48 47 49 49 50 50 49 47 45 45 44 43 42 40 40 39 39 40 40 38 38 37
47 46 46 46 46 47 49 47 48 48 49 49 50 49 49 49 48 48 47 45 43 42 43 42 41 42 42 42 42 42 44 44 42 42 44 45 45 45 45 47 47 47 46 47 48 48 48 47 46 44 43 43 42 41 41 39 38 37 38 37 37 38 37
45 44 44 44 46 45 45 46 46 44 43 42 42 43 42 43 45 44 43 42 42 40 41 41 40 40 40 40 42 43 41 41 41 42 42 42 43 44 45 46 47 47 46 45 46 44 45 46 46 45 44 41 40 40 40 40 40 41 40 37 36 36 36
46 45 44 46 44 45 44 44 43 41 42 41 42 43 47 42 42 42 41 39 40 40 42 42 41 40 40 41 42 43 42 43 42 42 42 42 42 43 43 44 43 43 42 41 40 41 41 44 46 44 42 38 38 39 39 40 39 39 39 40 40 41 40
48 46 45 47 46 44 42 42 42 43 44 43 43 42 39 41 39 40 40 39 40 41 40 41 42 40 41 42 43 42 42 41 40 41 39 39 39 40 44 50 45 41 42 41 38 39 40 43 42 41 41 41 39 37 37 36 37 37 40 40 40 40 39
48 48 48 47 45 44 43 45 42 40 42 42 40 39 41 41 39 38 37 39 46 39 37 40 41 41 41 41 43 41 42 41 41 37 39 38 38 39 40 43 44 43 41 39 38 39 40 42 43 43 41 39 38 39 37 37 36 34 33 34 33 34 35
46 45 47 46 45 47 45 44 41 42 38 40 40 38 40 40 39 36 36 36 37 36 37 37 38 40 41 41 42 42 42 42 40 37 38 40 39 39 39 40 41 38 39 39 39 39 39 41 42 40 40 39 39 41 37 34 36 34 32 33 32 32 33
46 44 43 44 44 44 43 44 42 42 40 39 39 38 38 38 38 35 35 35 35 36 38 36 38 40 40 41 41 41 38 40 39 39 38 38 38 38 38 38 39 40 38 38 38 38 38 39 40 39 38 37 38 38 34 32 34 39 33 34 33 33 34
46 47 43 43 46 48 44 43 43 40 38 38 38 37 36 37 36 35 34 34 35 35 40 41 36 39 39 40 40 40 40 38 38 39 37 36 35 36 36 36 37 38 38 37 37 38 38 38 39 40 38 37 36 36 34 35 32 33 32 32 30 31 32
49 48 47 46 46 46 44 43 42 41 40 38 38 37 36 35 36 34 34 33 33 34 35 39 40 37 39 39 39 39 39 38 39 39 37 36 35 36 35 35 37 39 37 37 37 37 38 38 38 37 37 36 36 36 36 33 33 32 31 31 31 32 32
47 46 45 45 46 46 43 42 43 42 40 40 38 37 35 35 36 35 34 33 34 34 33 34 39 39 38 38 38 38 38 38 39 39 38 35 35 36 35 36 38 37 37 37 37 37 36 37 35 36 36 36 36 37 34 33 31 31 31 31 30 30 31

ECMWFFLT1_sfc_temp_012.txt.gz
Temp
57 56 54 54 53 55 54 53 54 53 54 54 55 55 57 58 57 57 58 59 60 60 61 60 60 60 61 61 61 59 58 59 59 58 57 59 58 57 58 57 57 57 57 57 57 59 53 54 54 56 55 55 57 58 59 60 61 61 60 60 62 63 61
54 55 54 55 54 54 54 52 53 53 53 54 54 55 56 58 59 56 56 57 58 59 59 57 58 59 59 58 58 58 58 57 58 57 58 57 57 57 56 55 54 54 54 55 55 54 53 49 50 50 54 54 56 57 58 59 61 61 61 61 63 63 62
56 54 53 53 53 53 53 52 52 52 53 53 54 54 55 55 56 57 56 57 56 58 59 56 56 55 55 56 56 57 57 56 56 58 58 55 55 55 58 55 55 53 54 55 54 53 54 54 53 53 51 52 54 56 56 58 60 61 62 61 61 63 62
54 54 53 52 52 53 54 52 52 52 52 52 53 54 54 55 56 57 55 55 57 59 57 55 55 55 54 54 55 55 54 54 54 54 54 54 54 54 54 56 55 54 56 54 54 53 53 51 50 51 48 50 53 56 57 56 59 61 63 61 61 61 61
56 56 55 54 53 53 52 52 51 52 52 52 52 53 54 54 55 54 56 55 55 54 54 54 54 54 54 54 54 54 53 53 54 54 54 53 53 53 52 52 52 52 53 54 52 51 53 52 51 51 51 49 51 52 54 54 56 59 61 62 63 62 62
56 56 55 54 53 53 52 51 52 52 51 54 54 54 54 54 54 54 54 54 54 54 53 53 53 53 53 53 53 52 52 52 52 53 53 52 53 53 52 51 52 54 53 51 51 51 50 49 51 50 50 50 52 52 52 53 56 56 60 61 63 62 62
56 56 55 55 53 53 53 53 53 53 53 54 53 54 53 53 55 54 54 52 53 52 53 52 52 52 52 53 52 52 51 50 51 51 51 50 50 50 51 52 52 52 50 50 50 50 49 50 50 52 49 47 47 50 50 52 54 58 60 60 62 62 61
57 56 55 56 54 53 52 52 52 52 53 53 53 53 53 53 52 52 52 52 52 52 52 53 53 52 52 53 52 51 51 50 51 51 50 51 51 50 50 51 51 50 50 50 52 52 52 53 52 51 48 51 50 48 50 50 50 55 55 59 59 61 60
60 58 57 57 55 54 52 53 52 52 53 53 52 52 53 52 52 52 53 51 51 51 52 52 52 52 52 52 51 52 52 53 51 51 50 50 49 50 50 50 52 51 50 51 52 52 52 52 51 49 50 49 50 51 47 51 50 53 52 58 59 60 60
58 57 57 56 55 54 53 52 52 52 51 51 53 52 52 52 52 52 52 51 51 51 52 52 52 52 52 53 52 52 52 52 53 52 51 51 50 50 51 52 53 52 51 52 52 52 52 51 51 51 53 54 51 50 48 49 49 49 55 53 56 58 59
57 58 57 57 56 55 53 53 52 53 53 52 53 55 52 52 52 55 51 52 51 52 52 52 52 52 52 52 52 53 52 52 52 51 52 52 50 51 52 52 53 53 51 52 52 51 51 52 52 53 52 51 53 53 48 49 50 48 53 53 53 55 57
59 59 58 58 56 55 54 53 54 54 52 53 55 53 52 52 52 52 52 52 52 52 52 52 51 51 52 51 52 51 51 52 53 52 51 53 52 53 52 52 51 52 51 51 51 52 51 51 52 51 51 51 51 53 51 49 51 51 51 53 53 54 55
59 58 58 58 57 56 56 56 55 54 53 54 52 52 52 53 53 53 51 52 52 52 52 52 51 51 51 52 52 52 51 52 53 52 52 52 53 52 52 52 52 53 51 52 52 52 52 52 51 52 52 52 51 50 51 50 50 53 51 53 53 54 54
58 58 58 58 58 57 57 57 57 56 55 53 52 53 53 52 52 53 52 53 52 52 52 52 51 51 52 51 51 51 50 52 53 52 52 52 52 52 53 54 52 52 50 52 52 52 52 52 52 51 51 52 52 51 52 50 51 50 51 50 51 52 53
58 58 58 57 57 56 56 56 56 56 57 56 54 54 53 52 52 52 53 53 52 53 53 52 51 52 52 52 52 53 51 52 53 52 52 53 52 52 52 53 53 52 50 52 51 54 53 52 53 52 51 52 52 51 51 51 50 50 50 50 51 52 52
57 56 56 57 57 57 56 55 56 55 56 56 54 54 53 53 53 53 53 53 53 53 53 52 51 52 52 52 52 52 52 52 52 52 52 52 53 52 52 53 53 52 51 51 51 52 51 52 53 53 51 51 51 50 51 52 50 49 49 50 48 51 49
57 56 57 56 56 55 55 55 55 55 54 54 54 53 53 53 53 53 53 52 52 52 52 52 52 52 53 52 53 53 52 52 52 52 53 53 53 52 53 52 52 51 52 51 50 50 50 50 51 51 50 50 50 50 49 49 51 50 48 49 48 49 50
55 56 57 56 56 55 55 55 56 55 54 54 54 54 53 53 53 52 52 52 53 52 53 53 54 53 53 53 53 53 52 52 52 52 53 52 53 53 53 53 54 51 52 52 50 51 50 50 50 50 50 50 50 49 48 49 49 49 48 48 48 46 47
55 55 55 55 54 54 54 55 54 54 55 54 53 53 53 53 54 53 53 54 54 54 54 54 54 54 54 54 54 54 53 53 53 53 53 53 53 53 53 53 53 51 52 53 52 51 50 50 49 49 49 49 49 47 47 47 47 46 48 47 47 48 46
54 54 54 53 53 54 54 54 55 54 54 55 55 54 54 54 54 54 54 55 55 56 56 55 54 54 54 54 54 54 54 53 53 53 53 53 53 53 53 53 53 52 53 54 53 51 50 49 49 49 49 48 48 47 46 47 47 46 47 47 45 44 46
54 54 54 54 54 55 55 55 55 55 55 55 55 55 55 55 54 54 55 55 55 56 57 56 55 55 55 54 54 54 53 53 54 53 53 53 53 53 53 53 54 53 53 54 54 52 52 50 49 49 48 48 46 47 46 45 45 46 46 45 46 46 44
55 55 55 54 54 54 55 55 55 55 55 54 56 56 56 56 56 55 55 56 56 56 56 55 55 55 54 54 54 54 54 54 53 54 54 53 53 53 53 54 54 54 54 54 52 52 52 52 51 50 48 48 47 46 45 45 45 45 45 46 46 44 45
54 55 55 55 55 56 55 55 55 56 57 56 56 56 57 57 56 55 55 55 56 55 55 55 54 51 51 55 55 55 54 54 54 54 54 54 54 53 54 54 54 54 53 52 50 47 46 48 51 53 51 48 49 48 47 46 46 47 47 48 47 46 47
55 55 55 55 55 55 55 55 55 55 55 55 55 55 55 56 55 55 56 56 56 55 55 55 49 46 45 45 53 54 54 54 53 53 53 54 54 55 54 54 53 53 53 51 52 46 45 45 46 47 47 48 49 51 48 47 47 46 49 47 45 44 45
54 54 54 54 54 54 54 54 54 54 54 54 54 54 54 55 55 55 55 55 55 55 54 51 46 44 43 43 46 53 53 53 53 53 53 53 54 53 54 54 53 52 52 53 53 50 47 44 44 43 43 43 43 44 45 48 47 45 45 47 45 45 44
51 51 52 53 53 53 53 53 53 53 53 54 53 53 54 54 54 54 54 53 53 52 52 45 43 43 43 43 42 45 51 51 51 51 51 51 51 52 52 52 52 51 51 52 53 50 50 49 44 42 42 42 41 39 38 39 43 49 47 47 47 44 43
49 49 49 49 50 52 52 52 52 52 52 51 51 51 51 51 51 51 52 52 51 51 50 45 41 42 42 42 42 43 48 48 49 49 49 50 50 50 49 50 50 50 49 52 50 49 50 50 49 48 47 46 46 44 41 39 38 40 43 46 46 45 43
47 47 47 47 48 50 50 49 50 49 50 50 50 51 50 50 50 50 50 50 50 48 47 44 42 42 43 42 40 41 45 45 44 44 44 45 46 47 48 48 49 49 47 48 49 49 50 49 48 46 46 45 45 43 44 44 44 44 43 43 45 44 43
47 46 45 45 47 47 47 48 49 46 46 45 46 47 47 48 49 48 48 47 47 46 45 42 42 42 41 39 40 44 44 44 43 43 43 43 44 45 46 47 47 46 47 47 45 43 46 49 48 47 46 44 42 43 42 41 41 42 44 44 44 44 44
45 44 44 45 45 45 45 44 43 44 45 44 45 45 46 44 45 46 45 45 46 45 43 42 41 40 40 39 42 44 44 44 43 42 41 41 42 44 46 46 45 45 44 44 41 40 41 45 48 47 45 42 41 42 41 42 40 39 39 39 39 39 39
45 45 45 46 45 45 44 44 44 45 47 44 45 42 41 41 40 42 43 42 44 44 41 41 41 40 40 41 43 45 44 44 41 41 40 40 40 42 46 47 45 43 44 43 39 39 41 45 46 45 45 43 42 42 42 41 41 40 39 39 38 38 39
46 45 46 48 47 46 47 48 44 42 43 45 43 40 42 41 39 39 40 42 46 42 40 41 40 40 40 40 43 43 44 44 43 40 41 41 41 41 42 44 44 44 44 41 38 39 39 43 45 44 44 44 43 42 42 41 41 41 41 40 39 40 40
47 46 45 46 45 48 46 44 43 43 42 43 42 41 41 41 39 38 38 40 41 40 41 40 41 40 40 40 41 44 44 45 43 41 41 43 42 42 42 42 42 38 38 38 38 38 38 40 44 43 44 44 42 41 40 40 40 39 38 38 38 38 38
49 48 46 45 44 45 45 46 44 44 42 42 42 41 40 39 39 37 37 38 39 39 41 40 40 39 40 40 40 41 43 43 42 41 40 40 40 41 41 41 41 39 38 38 38 38 38 38 40 43 42 42 42 41 38 39 39 38 38 38 38 38 38
46 48 47 46 46 44 44 44 45 44 43 43 42 40 38 38 38 37 37 37 38 38 42 41 40 39 39 39 39 40 42 41 41 41 39 38 39 39 40 40 40 38 37 38 37 38 38 38 39 42 39 37 36 35 39 39 38 38 38 37 38 38 38
47 48 47 47 47 45 44 44 43 43 43 42 42 40 38 37 38 37 37 36 36 37 37 40 40 40 38 38 39 39 39 40 39 41 41 39 39 39 40 39 40 38 37 37 37 37 38 37 38 38 36 35 35 35 37 38 38 37 37 37 37 37 37
45 45 45 46 46 44 43 44 44 43 43 43 42 40 38 38 38 38 38 38 37 36 36 36 39 39 39 38 38 38 37 37 38 40 41 39 38 39 39 39 39 37 37 37 36 36 36 37 37 35 36 35 35 36 38 38 37 37 37 36 36 36 37

ECMWFFLT1_sfc_temp_015.txt.gz
Temp
70 67 67 66 66 68 68 67 69 69 69 70 70 71 72 71 69 68 69 69 70 70 71 72 71 71 71 71 70 71 71 71 70 68 66 67 67 64 64 64 64 66 66 66 70 68 66 61 61 66 67 66 67 67 69 70 70 69 68 70 72 73 72
68 67 68 68 67 67 66 67 68 69 68 67 69 69 70 71 71 70 69 68 69 70 73 73 71 71 70 69 68 69 69 70 70 69 67 67 69 65 64 64 67 67 67 67 67 69 67 63 62 62 62 66 66 67 67 69 70 70 70 70 72 72 71
67 67 68 67 67 68 67 66 67 68 69 68 68 68 69 70 70 70 71 71 70 71 72 72 71 70 69 69 69 69 69 69 70 70 68 68 69 68 68 67 66 66 67 68 68 68 68 68 63 63 64 63 60 63 66 68 70 71 72 71 71 73 71
67 67 67 66 67 68 68 67 67 67 68 68 68 67 67 69 68 69 69 70 70 70 69 70 70 71 69 69 68 68 68 68 69 68 68 68 69 68 69 70 69 69 68 67 67 68 68 65 64 63 65 67 64 60 63 67 69 72 73 71 71 70 71
68 68 68 67 68 68 67 67 67 68 67 67 67 68 67 67 68 68 68 68 68 68 68 69 68 69 68 68 68 68 67 67 68 68 67 66 67 68 68 69 70 70 70 70 70 69 69 67 66 64 65 67 67 67 67 66 70 70 71 71 72 71 71
68 69 69 67 67 68 67 67 68 68 68 68 68 68 66 66 68 68 68 68 68 67 67 68 67 67 68 68 68 67 67 67 68 68 67 66 67 68 67 68 71 71 69 69 69 69 68 68 68 65 67 69 64 65 68 68 66 70 71 71 72 71 72
68 68 68 68 67 68 68 68 68 69 69 68 68 67 66 67 68 67 67 66 66 66 66 66 66 67 67 70 68 67 66 66 66 66 66 65 66 66 67 68 68 68 67 68 68 68 67 67 67 65 63 65 66 66 68 69 69 68 68 70 71 71 70
67 67 67 67 66 66 65 66 67 68 69 68 68 66 66 66 66 66 66 66 65 65 66 66 66 66 66 68 68 65 65 66 66 66 66 65 64 65 66 67 66 67 67 68 69 69 70 69 68 67 65 61 62 65 64 68 67 66 66 68 70 70 69
66 65 65 64 64 64 62 65 66 66 67 67 66 66 65 66 66 66 66 65 65 65 65 66 66 67 66 67 67 66 64 66 65 65 66 66 64 64 65 66 67 67 67 68 70 69 70 69 68 68 69 68 63 60 63 63 65 63 67 67 68 68 69
64 64 62 62 61 61 61 63 65 65 65 66 66 66 65 65 65 66 66 65 64 65 65 65 65 66 66 67 67 66 65 66 67 66 66 66 65 65 66 66 67 67 67 67 68 68 67 68 69 69 71 70 69 64 62 61 61 62 64 67 66 66 68
63 62 61 61 60 59 60 62 64 65 66 66 66 65 66 65 65 65 66 65 65 65 65 65 66 66 66 66 66 66 65 66 65 65 66 66 65 66 66 66 67 67 67 68 67 67 67 68 68 69 70 70 71 67 65 62 59 63 63 64 66 65 67
61 59 58 59 58 58 60 62 64 64 64 66 67 66 66 67 66 66 66 66 66 65 65 65 65 66 67 66 66 65 65 66 66 65 65 65 65 66 66 65 66 66 66 66 66 67 67 68 68 69 69 69 68 67 66 65 60 60 64 61 63 66 65
65 63 61 60 60 61 61 61 62 63 65 67 67 67 68 67 67 67 67 67 66 67 67 66 66 66 66 66 67 67 66 67 68 67 66 66 67 67 66 66 67 67 67 68 67 67 67 67 67 69 68 68 67 67 67 65 62 59 62 63 63 64 65
63 63 63 63 62 62 62 62 62 64 65 65 66 67 68 68 69 68 68 68 68 67 67 66 66 67 67 66 66 66 67 68 68 67 67 65 66 67 68 68 67 66 66 67 67 67 68 68 67 67 68 68 67 66 66 65 62 59 60 62 63 63 63
65 64 63 63 63 63 63 63 62 63 63 65 67 68 69 67 68 68 68 68 67 67 67 66 66 67 68 66 65 65 66 67 68 67 67 68 67 66 66 67 67 66 67 68 67 70 69 69 69 69 68 68 68 66 67 66 64 62 58 60 61 64 63
66 65 63 63 63 64 63 64 64 63 64 64 64 67 67 66 67 68 67 67 67 67 67 67 66 66 66 66 67 66 65 66 67 67 67 67 69 68 66 66 67 66 65 66 66 67 67 68 70 70 67 68 66 65 67 68 65 61 60 59 61 62 61
65 64 64 64 63 63 64 64 65 65 65 64 65 65 66 67 66 66 66 66 67 67 67 67 66 67 66 66 66 66 66 65 66 67 67 69 69 68 68 66 66 65 65 65 66 66 66 67 67 68 65 65 65 64 64 64 66 64 62 60 60 64 62
64 63 63 64 63 64 64 65 65 66 65 65 65 65 66 67 67 68 66 67 68 68 68 68 67 66 66 66 66 65 66 66 65 66 66 66 64 67 67 67 68 67 66 66 65 66 66 64 68 66 66 66 66 64 63 65 65 65 63 61 59 60 61
63 64 64 63 62 62 63 65 65 65 66 65 64 65 65 66 68 69 69 69 69 69 69 68 68 67 67 66 66 66 66 66 66 67 66 66 67 67 66 68 68 67 67 66 66 65 65 65 65 64 64 65 66 63 62 62 63 64 64 63 62 59 60
64 64 64 64 62 63 64 64 65 65 66 66 65 65 66 66 67 69 69 69 69 69 68 68 68 67 67 67 66 66 65 66 66 66 66 67 67 67 67 68 67 67 67 67 67 66 65 64 63 63 63 61 64 63 62 64 65 64 63 62 61 61 61
64 65 65 66 64 63 63 63 65 65 66 65 66 66 66 66 65 65 65 67 67 67 67 68 67 65 66 65 65 65 65 65 66 67 66 67 66 67 67 67 67 67 67 68 68 67 66 65 64 64 63 63 63 62 63 62 62 63 63 62 63 61 62
65 66 66 66 65 64 63 64 64 65 65 65 63 64 63 63 63 63 64 64 64 63 63 63 63 62 61 60 61 62 64 66 66 67 67 68 68 67 67 67 67 67 65 60 56 57 59 60 65 64 62 62 61 61 62 63 63 63 62 62 61 61 61
65 65 66 66 65 65 64 62 63 64 65 65 64 63 61 61 61 61 62 64 61 60 61 61 57 52 52 56 56 59 62 65 66 66 66 66 67 67 67 67 66 58 54 53 50 48 47 48 52 62 63 61 61 61 61 61 61 62 62 61 62 61 60
65 64 65 65 65 65 65 64 65 64 64 61 60 59 59 60 59 59 60 60 60 60 60 59 50 47 46 47 58 62 63 65 66 65 65 65 65 66 67 68 67 61 57 54 55 46 45 45 45 46 51 52 55 62 62 60 61 62 61 60 59 58 57
64 64 64 65 65 65 64 63 64 64 62 60 58 58 58 58 58 58 60 62 63 63 61 53 46 46 45 44 48 62 63 62 63 63 64 64 66 66 65 65 65 64 64 64 64 62 52 44 43 44 44 46 45 40 42 56 59 58 58 59 57 57 57
65 64 65 65 65 64 64 63 63 62 61 62 61 60 60 59 61 61 62 63 63 64 64 48 44 44 44 44 42 50 62 62 61 62 63 63 63 63 64 63 63 63 64 55 58 62 63 58 44 42 42 41 40 40 39 38 41 54 61 59 58 57 57
63 63 62 63 63 64 63 62 63 63 62 62 61 61 61 61 62 62 63 64 63 63 64 47 44 44 44 42 41 45 60 59 60 60 60 60 60 61 61 62 63 63 63 62 62 61 61 60 56 54 54 57 57 50 43 42 42 42 50 58 58 56 55
61 61 61 61 61 62 62 62 62 62 62 62 61 60 61 61 62 62 62 63 63 61 61 44 43 43 42 42 39 45 59 58 59 58 58 57 57 58 59 60 61 61 60 60 59 57 60 59 59 58 58 56 56 56 55 55 55 56 56 56 56 55 54
62 62 62 61 60 60 59 59 58 57 56 58 61 62 62 62 61 61 61 61 61 61 58 41 41 41 41 38 42 59 60 59 59 59 58 57 57 59 59 59 60 59 59 58 47 44 52 60 60 58 56 55 54 53 50 44 40 43 50 54 55 54 55
61 61 61 60 61 60 60 59 58 59 58 59 60 60 60 61 61 60 58 60 61 61 58 44 40 40 39 40 50 61 59 59 58 57 56 56 58 58 58 59 60 60 59 57 43 41 44 52 59 58 56 53 52 53 51 49 43 39 39 38 38 37 37
60 58 56 57 59 60 61 61 61 60 57 56 56 57 57 56 58 60 60 59 61 59 57 46 39 40 40 43 51 60 61 61 57 56 55 55 57 57 52 45 53 59 56 54 39 41 42 54 59 58 56 53 52 52 50 50 51 47 39 38 37 37 38
60 59 59 58 58 58 58 58 59 59 60 61 59 57 57 58 56 57 58 58 52 57 56 48 39 40 40 40 51 62 62 61 58 57 57 56 57 57 55 48 42 48 50 45 37 39 42 53 59 57 56 55 54 52 51 51 50 50 51 51 50 48 47
59 60 61 59 57 57 58 58 56 56 55 56 54 54 54 55 54 53 54 55 55 58 57 56 48 39 41 40 45 62 63 62 60 57 59 58 56 56 55 54 48 38 38 38 38 38 40 44 57 57 57 56 54 50 51 51 50 50 50 50 50 50 50
58 60 61 60 58 56 56 56 56 55 53 52 52 52 51 52 52 52 54 55 57 56 57 56 48 39 40 41 41 51 63 63 61 60 59 58 58 56 56 55 53 40 38 38 38 38 39 40 44 55 55 54 52 49 48 51 46 42 50 49 49 50 51
58 58 59 60 59 58 56 56 56 56 56 54 52 51 52 54 54 52 52 53 55 55 52 49 53 41 40 40 41 45 60 61 60 60 58 58 57 56 55 55 53 42 37 38 38 38 38 40 41 52 45 37 35 38 49 50 51 51 50 51 51 50 51
57 58 58 58 59 60 58 56 56 56 54 52 50 47 47 49 51 52 53 53 54 54 54 51 45 48 39 40 38 42 46 51 44 59 58 57 56 54 54 52 47 38 38 37 38 38 38 39 42 44 35 36 36 35 43 51 50 50 50 50 49 48 49
57 57 57 57 56 58 57 57 56 56 55 54 52 48 47 49 50 50 50 50 51 53 53 54 44 42 44 38 39 39 40 41 44 57 58 57 55 54 53 52 46 37 37 37 36 37 37 39 42 35 36 35 37 41 50 50 49 49 46 47 47 48 48

ECMWFFLT1_sfc_temp_021.txt.gz
Temp
77 76 77 78 79 80 79 79 80 80 81 81 80 81 80 80 79 79 79 79 79 80 80 79 77 78 78 78 77 78 76 76 74 68 68 71 71 70 74 70 71 73 73 71 66 61 63 63 66 73 74 73 74 74 76 76 76 75 75 77 79 79 78
79 78 79 79 79 78 77 78 79 81 80 80 81 79 80 80 79 79 79 79 78 80 82 82 80 80 77 76 76 76 75 75 75 74 73 73 73 73 71 71 70 71 70 69 67 66 67 67 66 67 67 71 72 73 74 75 76 76 76 77 79 79 77
78 79 80 77 77 77 76 76 77 78 79 78 78 80 79 81 80 79 80 78 78 79 79 80 78 77 76 76 75 75 75 74 74 74 74 73 73 73 74 72 71 69 67 65 67 71 69 73 67 68 68 67 66 70 73 74 76 77 78 77 76 79 77
77 77 76 75 77 76 76 76 77 77 78 78 78 78 79 79 78 79 78 78 78 77 78 78 76 77 76 76 76 75 74 74 74 73 73 74 74 73 74 73 72 72 72 71 66 67 70 70 70 69 71 73 70 68 72 76 78 79 79 77 76 76 76
76 76 75 75 76 76 76 76 77 77 77 77 77 77 77 78 77 77 77 78 77 77 76 77 77 77 76 76 75 75 74 74 74 73 73 73 73 73 72 72 72 74 74 75 76 76 75 73 72 71 72 74 74 74 76 75 79 78 79 79 79 78 77
76 76 76 76 77 76 77 76 76 76 76 76 76 76 76 76 77 76 76 77 76 76 77 77 77 77 76 76 76 75 74 74 74 73 73 73 73 72 73 75 78 79 77 78 78 77 78 76 75 73 75 77 70 71 75 76 75 79 80 79 79 79 79
75 75 76 76 77 77 77 76 76 76 76 75 75 75 76 77 78 77 77 76 77 77 76 76 77 78 77 77 75 75 74 73 72 72 73 73 73 74 76 77 76 76 76 77 77 77 76 75 74 74 72 73 73 73 76 77 77 75 76 79 80 79 77
76 76 77 77 77 77 77 77 77 77 76 76 76 76 77 76 76 76 76 76 76 76 76 76 77 77 77 77 76 75 75 76 75 74 74 74 74 75 75 76 75 76 77 79 79 79 80 78 77 75 74 68 70 73 73 76 76 74 74 76 79 78 76
76 76 77 77 76 77 76 76 76 76 76 75 76 76 76 76 75 75 76 76 76 76 76 77 77 77 76 76 75 75 74 77 74 74 74 74 73 73 74 76 76 76 77 78 79 77 80 79 78 77 76 73 69 66 70 69 72 72 77 74 76 77 77
75 75 75 75 75 75 76 76 76 76 75 74 73 74 75 76 76 76 75 75 75 76 76 76 76 76 76 75 75 74 74 76 75 75 74 73 73 74 74 75 75 75 76 76 77 77 77 78 78 78 79 75 74 70 68 66 67 68 73 77 73 74 77
76 76 75 74 75 74 73 73 73 73 74 74 74 73 73 74 75 75 75 75 75 75 75 76 77 76 76 75 75 75 75 75 74 74 75 75 74 75 75 76 76 75 75 75 75 75 76 76 77 77 78 79 77 71 70 67 66 70 69 73 76 74 76
75 75 75 75 74 74 73 73 73 73 73 73 73 72 72 75 75 75 75 75 75 75 75 75 76 75 76 74 74 74 75 75 74 73 74 74 74 74 73 73 74 74 75 74 75 76 76 77 77 78 77 77 76 73 73 70 65 68 73 68 72 76 75
76 75 75 73 74 74 74 73 72 72 72 74 73 73 74 75 75 74 75 75 75 75 75 75 76 75 75 74 75 75 74 75 75 74 74 75 77 75 74 74 74 75 75 77 75 75 75 76 76 77 77 76 75 74 74 72 68 65 71 71 71 73 75
74 75 75 74 73 73 73 73 73 73 74 73 73 73 74 75 76 76 76 76 76 75 75 74 75 75 75 75 75 75 76 76 76 75 75 74 76 76 76 75 74 74 76 75 75 76 77 77 77 76 77 76 75 75 74 72 68 66 68 72 72 74 74
74 75 74 73 72 72 72 72 72 73 73 74 74 75 76 76 77 77 77 77 76 76 76 76 76 76 75 74 73 75 75 76 75 75 74 75 75 75 74 75 75 74 76 76 75 79 78 78 78 77 77 77 76 74 74 74 71 69 66 69 71 74 73
73 73 73 72 72 73 73 73 75 74 75 75 77 77 77 76 77 77 77 76 76 76 76 76 75 75 74 74 74 74 75 75 73 73 73 74 76 75 74 73 73 73 74 73 73 75 76 77 79 79 76 77 75 74 76 76 72 69 67 68 70 71 72
73 73 72 73 72 73 74 74 76 75 76 76 76 77 78 78 77 77 76 77 77 76 76 75 75 76 76 75 75 74 75 74 74 74 75 76 76 75 74 73 73 73 73 72 73 74 75 75 74 76 74 75 73 73 73 73 72 71 70 69 70 73 73
72 72 72 73 73 74 74 75 76 77 76 76 77 76 77 78 77 77 75 77 77 76 76 76 76 76 75 75 75 74 75 75 75 75 75 76 73 75 74 73 74 74 73 72 72 73 74 72 76 76 74 76 75 74 73 72 74 74 71 68 69 71 71
73 73 73 73 73 74 74 74 75 76 77 76 76 76 76 77 78 78 78 78 78 77 77 77 77 76 76 76 75 75 75 74 74 75 75 75 75 75 74 74 74 75 74 72 72 72 73 73 74 73 74 75 77 75 71 73 72 71 71 70 69 68 70
73 72 72 73 74 74 74 74 75 76 77 77 76 75 76 77 77 78 78 78 78 77 78 77 76 75 76 75 75 75 73 74 74 74 75 75 76 75 75 75 74 74 73 73 72 72 71 71 71 71 71 71 73 74 71 72 73 73 71 69 70 69 69
73 73 74 74 74 73 73 74 75 76 76 76 75 76 76 76 76 78 78 78 78 78 78 77 77 77 77 75 74 74 74 73 73 74 74 75 75 75 74 74 73 73 73 74 74 73 72 71 71 70 71 71 71 70 70 70 70 70 70 70 69 69 69
73 73 73 74 73 73 73 75 75 76 76 75 75 76 77 77 76 77 78 77 78 78 77 76 77 76 75 75 74 73 73 73 73 73 73 73 73 74 73 71 71 72 67 60 54 57 58 59 69 70 70 70 70 69 69 68 68 68 68 68 68 68 68
73 73 73 72 73 73 73 74 74 74 75 75 75 75 77 77 77 76 76 77 77 76 75 76 62 57 62 74 73 73 71 71 70 69 68 68 68 67 68 69 69 58 57 60 61 55 53 52 52 60 67 69 69 69 68 67 67 68 68 68 68 67 66
74 73 72 71 73 73 72 72 73 73 74 74 74 75 75 76 76 76 76 76 75 75 74 71 49 49 48 53 70 71 70 69 69 68 67 67 67 67 63 65 67 62 61 59 60 50 50 50 48 46 47 49 52 63 68 66 67 67 67 67 68 68 66
74 73 73 74 74 74 73 73 73 72 71 71 71 73 73 74 75 75 75 75 74 73 74 53 45 46 49 51 58 70 70 68 67 66 67 68 68 65 63 63 62 63 66 66 69 64 55 45 45 44 42 42 41 40 44 61 65 66 65 66 66 66 65
75 74 74 74 74 74 73 73 71 69 70 70 69 69 68 71 70 74 74 74 74 72 71 46 45 44 46 47 48 58 70 69 67 66 67 68 69 68 65 67 68 68 69 58 65 71 67 57 44 40 41 42 42 43 43 42 48 61 64 64 64 64 65
73 73 73 73 72 72 72 72 72 71 71 70 69 69 68 69 71 72 72 72 71 71 70 47 44 43 44 44 45 51 68 67 67 67 68 68 67 68 69 69 70 70 70 69 70 70 68 63 60 59 59 62 62 51 44 43 44 47 58 64 64 63 64
73 73 73 72 72 72 71 71 71 71 70 68 69 68 64 63 67 70 70 69 68 67 68 47 44 43 44 43 43 48 67 67 67 66 65 66 64 66 68 69 70 70 69 69 66 58 67 66 64 63 63 64 64 64 64 64 64 65 65 65 66 65 64
72 73 73 73 72 71 71 70 70 70 70 71 70 69 66 65 63 66 67 66 66 67 69 47 46 44 44 44 43 60 66 68 68 67 64 64 68 69 68 69 69 68 67 64 51 41 48 63 67 66 64 65 64 61 56 46 40 44 54 60 61 61 60
71 71 72 72 72 72 71 71 71 72 70 70 70 70 68 64 64 65 64 64 66 67 67 52 44 46 45 43 47 64 66 68 67 65 65 64 66 68 66 65 71 67 66 63 44 42 44 46 68 66 65 63 62 61 58 55 44 40 40 40 38 38 38
70 69 70 71 71 71 72 72 72 73 71 70 70 70 71 70 71 70 67 65 65 63 63 54 41 44 44 42 50 64 67 67 66 65 64 65 66 63 57 45 58 68 64 61 40 42 38 52 66 66 65 63 62 61 59 58 57 52 40 41 40 39 42
68 68 68 69 69 69 70 71 72 73 72 72 71 72 71 71 70 70 71 70 62 65 68 55 40 42 42 41 52 65 66 67 65 63 64 65 63 61 61 53 45 54 58 48 37 41 38 51 66 66 65 64 62 61 60 60 59 58 57 56 55 52 50
68 68 68 67 68 68 70 70 70 71 71 73 72 72 72 71 70 70 70 69 67 66 66 62 49 40 42 41 46 64 67 67 64 63 63 61 62 63 62 59 49 39 39 38 40 40 41 42 62 67 66 65 63 62 62 62 59 61 61 61 61 60 60
67 67 67 67 67 68 69 69 69 70 70 71 71 71 70 70 70 69 70 70 69 67 67 65 52 40 41 42 43 48 68 65 63 60 58 57 58 60 63 62 57 40 38 39 40 40 42 42 47 62 60 58 56 53 56 61 55 48 58 59 59 59 59
65 65 66 66 66 66 68 69 69 69 70 70 69 69 69 69 69 69 70 70 69 68 65 59 59 42 42 42 44 40 58 62 61 62 59 60 63 64 63 60 57 43 38 39 40 40 41 44 46 58 50 41 39 42 58 61 61 60 60 61 61 60 61
63 65 65 66 65 64 66 67 67 68 68 68 67 68 68 67 67 68 68 69 69 69 68 60 49 50 41 43 42 43 40 47 49 60 62 62 65 64 62 57 49 39 39 39 40 40 42 43 47 49 38 42 43 37 44 60 61 60 60 60 59 58 58
63 64 64 65 65 64 65 65 66 67 68 68 67 67 68 67 67 66 67 67 67 69 68 65 50 47 48 43 45 41 41 44 49 60 66 67 67 63 58 55 48 38 39 39 38 39 40 44 48 38 40 39 38 41 56 60 59 59 56 56 56 57 58

ECMWFFLT1_sfc_temp_024.txt.gz
Temp
70 70 71 71 73 73 73 73 73 73 76 76 75 75 75 75 74 74 73 72 72 71 70 69 68 70 70 71 71 69 67 65 66 65 64 63 62 63 64 65 65 68 67 66 65 62 61 58 60 67 68 66 66 67 68 69 69 68 67 69 70 70 68
72 72 72 73 72 72 72 72 72 75 74 74 75 74 74 75 74 73 74 73 72 73 75 74 72 74 72 70 69 69 69 69 69 66 65 64 66 63 63 63 66 65 65 66 65 63 61 60 59 60 60 65 64 65 66 67 67 67 68 69 71 70 67
72 72 72 71 71 72 70 71 71 71 72 72 73 74 75 76 75 75 74 73 72 73 73 74 73 72 71 71 70 70 70 69 68 68 65 66 66 66 66 64 62 64 63 61 61 61 63 65 60 61 60 59 58 62 65 64 67 67 70 69 69 70 67
71 71 69 70 70 71 70 70 70 71 72 71 72 72 72 74 72 73 73 73 72 72 72 73 71 71 69 69 71 71 70 69 68 68 68 69 67 66 66 63 63 64 61 59 60 61 62 61 62 61 64 66 62 59 63 67 69 71 71 68 68 68 67
72 71 70 70 71 71 70 70 70 70 71 71 71 70 71 72 72 72 72 72 71 71 72 72 72 71 70 70 70 70 70 69 70 69 68 67 67 65 66 66 66 65 64 64 65 64 63 63 63 62 63 66 66 64 70 66 71 70 69 70 71 69 68
72 72 71 70 72 70 70 70 70 69 70 70 70 70 70 72 71 71 71 71 70 70 71 71 71 72 71 69 69 69 69 68 67 67 66 66 68 66 66 67 69 69 67 68 69 68 67 67 65 62 67 67 60 62 67 67 65 69 70 69 71 69 70
71 71 71 71 72 71 71 70 71 70 70 70 70 69 71 73 71 71 71 71 71 71 71 71 71 71 71 69 68 68 68 68 68 67 67 67 68 69 68 66 67 67 67 68 67 69 67 67 65 63 62 63 64 65 68 68 69 67 67 70 70 70 68
71 71 72 72 72 71 71 71 71 71 70 70 70 70 71 71 71 71 71 70 71 70 71 71 72 70 69 71 71 69 69 69 69 68 67 67 67 68 67 66 66 66 66 66 66 67 70 66 68 65 63 60 60 61 62 68 67 66 66 68 71 69 68
72 72 71 71 71 71 71 71 71 70 70 69 70 70 71 70 70 70 71 70 71 71 71 72 71 70 69 68 68 68 68 72 67 67 66 66 66 66 66 67 66 66 67 68 69 67 67 69 67 67 65 63 58 57 59 58 61 64 70 66 68 70 68
72 71 70 70 70 71 71 71 70 70 69 69 69 70 69 70 70 69 69 69 70 70 70 70 70 69 69 68 68 67 66 67 67 67 66 65 66 66 66 66 66 66 66 67 67 67 67 67 68 66 69 65 64 58 57 55 57 58 64 68 64 65 69
72 71 70 70 70 69 69 69 69 69 69 69 70 70 69 69 69 70 68 68 68 70 70 70 70 69 68 68 68 67 67 66 66 66 66 66 67 67 67 67 67 65 67 66 67 66 66 67 65 68 66 67 64 61 61 58 56 60 60 64 66 65 67
72 71 71 70 70 69 68 68 69 68 69 68 69 68 67 68 68 68 68 68 69 68 68 68 69 67 67 66 66 66 66 66 65 64 66 66 67 67 66 65 65 65 67 66 66 67 66 67 68 67 65 66 65 64 63 61 55 58 62 59 63 69 66
73 72 70 69 69 69 69 69 69 68 68 69 68 68 68 68 68 67 68 68 68 67 68 69 68 67 66 66 66 68 66 66 67 65 66 67 72 68 66 65 65 66 67 67 67 67 66 66 67 66 66 66 65 64 64 61 58 56 60 61 62 65 68
71 71 70 70 69 68 68 68 68 68 69 67 68 68 69 68 69 68 68 68 68 68 68 68 68 67 67 66 67 66 67 68 68 66 66 66 69 68 68 67 66 67 67 65 67 66 68 69 67 67 66 65 65 65 63 62 59 57 61 63 63 64 66
71 71 69 69 68 69 68 68 68 68 68 68 69 70 70 69 68 69 69 69 68 68 69 68 69 68 67 66 66 69 68 68 67 67 66 66 66 69 66 65 67 65 68 67 65 71 70 69 70 70 69 67 65 65 65 64 61 58 56 61 62 66 63
71 70 69 68 68 69 68 68 69 67 68 68 69 69 70 69 70 69 69 69 69 68 69 68 69 67 66 67 68 69 67 66 65 65 66 66 69 68 66 64 64 66 68 65 67 66 67 69 71 71 67 67 65 65 67 66 62 60 58 58 61 63 62
70 70 68 68 68 69 69 69 70 69 70 69 70 69 70 71 70 69 69 69 69 68 68 69 69 69 69 68 69 68 67 66 67 67 66 67 69 67 65 64 64 66 66 65 65 65 65 66 66 67 66 65 64 66 65 63 65 63 60 59 61 65 64
69 69 68 68 68 69 70 70 70 71 70 69 70 70 70 71 70 70 69 70 70 69 69 69 68 68 68 69 69 67 67 67 67 67 67 67 68 66 66 64 66 66 67 65 64 64 66 65 68 66 66 67 67 66 65 63 64 64 61 59 60 62 63
69 69 69 69 69 69 70 70 70 70 72 70 69 70 69 70 72 71 71 71 71 71 71 69 70 69 69 68 68 68 67 67 68 68 68 68 68 67 66 67 67 66 67 66 64 64 63 65 66 65 66 66 68 65 62 63 63 62 62 62 62 61 62
69 69 69 69 69 70 70 71 71 71 71 70 69 69 70 69 69 71 71 71 71 71 71 71 69 69 70 70 68 68 67 67 69 67 68 68 68 67 69 69 68 67 67 67 66 65 65 65 64 63 63 63 66 63 63 63 64 62 61 60 61 61 61
70 70 70 70 70 70 70 70 70 70 71 70 69 70 70 70 69 70 70 70 70 70 70 70 70 70 70 68 67 68 67 66 67 67 67 68 68 67 66 66 66 66 65 63 63 63 63 62 64 64 63 63 62 62 61 61 61 61 60 60 60 60 59
71 70 70 71 70 70 70 70 70 70 70 70 70 71 71 70 69 69 70 70 71 70 70 69 71 70 68 69 69 66 67 68 66 66 68 67 63 62 62 63 65 63 61 59 54 56 56 58 61 60 62 64 63 61 60 60 60 58 58 59 58 60 59
71 70 70 70 70 70 70 70 70 70 70 70 71 70 71 70 70 70 70 69 69 69 69 69 67 62 63 69 68 69 67 67 66 66 66 64 62 62 62 62 63 58 57 58 57 52 51 49 51 58 58 59 60 60 60 60 60 60 59 57 56 57 58
69 68 69 68 68 69 70 69 69 70 70 70 70 69 70 69 69 70 70 69 67 68 68 68 53 55 55 58 68 66 65 64 64 63 63 64 62 61 61 61 62 61 60 60 59 52 50 48 47 48 48 48 52 57 58 58 58 58 58 57 57 57 55
68 66 67 68 67 68 68 67 67 67 67 68 69 69 68 68 68 68 67 68 67 67 67 52 46 49 52 55 60 67 66 65 64 63 63 63 64 62 62 61 60 62 61 61 62 61 53 46 44 42 42 44 43 41 46 54 57 56 54 54 55 55 55
67 66 66 66 66 65 65 65 65 65 64 66 67 67 67 67 66 67 66 66 66 66 64 45 47 48 49 50 52 60 68 66 63 63 63 63 63 63 61 60 60 60 64 60 60 62 60 51 43 41 41 43 43 45 46 46 48 54 57 55 54 54 53
68 68 67 65 66 66 64 64 65 63 64 65 65 65 66 65 65 65 65 66 63 58 58 50 44 46 47 49 47 55 66 64 63 63 63 63 62 62 61 60 59 59 61 61 61 62 60 56 52 52 51 53 52 46 42 43 47 48 53 56 55 55 55
67 67 67 65 66 66 63 64 65 64 64 64 65 65 65 64 63 62 63 63 59 58 60 50 44 44 44 45 43 49 62 64 63 62 63 63 63 62 62 62 61 61 61 61 60 58 60 58 57 56 55 55 54 54 53 52 51 53 56 58 57 55 53
67 68 69 68 67 67 66 66 66 66 65 65 65 65 64 64 62 62 63 62 59 59 59 49 45 43 43 43 43 55 59 61 61 62 62 62 62 63 63 62 60 61 61 59 48 44 49 58 59 58 57 56 54 50 47 45 41 44 48 51 51 51 49
64 65 66 66 66 66 67 67 66 67 65 65 64 63 63 63 64 63 62 61 60 59 60 52 46 45 44 43 45 57 59 60 61 61 61 60 61 61 60 61 61 59 56 55 45 45 44 51 60 58 57 55 54 52 49 48 43 40 41 40 40 40 39
64 64 64 64 64 63 64 65 66 67 65 64 63 63 62 62 63 63 62 62 61 60 61 54 46 46 45 43 48 58 59 60 60 60 58 58 58 56 54 49 55 58 56 53 41 41 43 54 59 58 57 55 54 51 49 50 51 46 40 40 39 40 42
63 63 63 63 63 63 63 63 64 65 65 65 64 66 65 63 62 62 62 61 57 59 61 55 43 44 44 43 47 57 60 60 59 60 58 58 58 57 53 49 49 54 53 46 38 40 43 51 58 58 57 56 54 52 50 51 50 47 48 48 46 46 45
62 62 62 61 61 62 63 63 63 63 64 66 66 66 66 66 64 62 62 61 60 60 59 60 56 45 44 44 44 55 59 59 58 58 59 59 57 55 52 50 45 41 40 40 40 40 41 45 56 58 58 56 53 52 54 53 52 51 51 51 50 49 48
60 61 62 61 61 61 62 62 62 63 63 64 64 64 64 64 64 63 63 59 60 61 61 60 58 49 45 43 43 47 56 57 58 56 55 56 57 54 52 48 45 41 40 40 40 41 43 44 46 52 51 49 49 47 51 52 48 49 52 51 50 51 51
59 59 60 60 59 60 61 62 62 62 63 63 62 62 62 63 64 64 64 63 61 59 58 56 61 50 45 43 42 42 54 55 54 54 52 52 52 51 49 47 44 41 39 40 41 41 42 43 44 49 45 40 37 41 51 52 52 50 51 51 49 49 50
57 59 59 59 59 58 60 60 60 61 61 61 61 61 61 62 62 62 63 62 61 60 60 56 51 52 44 43 41 42 45 49 46 53 51 50 50 51 47 46 44 40 39 40 41 42 42 43 44 44 39 39 39 40 45 53 51 52 51 51 50 49 48
57 57 57 57 57 57 58 59 60 60 61 60 60 60 62 62 62 62 62 61 61 61 60 59 51 48 46 41 40 42 41 42 45 52 52 50 52 49 46 45 43 39 39 40 40 41 42 43 43 39 39 38 41 43 47 50 50 51 47 49 48 48 48

ECMWFFLT1_sfc_temp_027.txt.gz
Temp
66 65 65 64 65 66 65 66 66 65 68 67 66 66 66 66 65 65 65 65 64 64 64 63 63 64 66 66 64 64 63 63 62 60 58 59 58 58 60 60 61 62 61 60 59 56 55 54 56 61 62 61 62 61 63 64 63 62 62 62 64 63 61
67 65 65 66 64 65 63 63 65 66 66 67 68 67 66 66 66 65 64 64 65 65 65 65 63 64 64 64 63 62 61 62 62 61 60 59 60 58 60 60 61 60 60 60 60 60 55 54 54 56 57 59 60 60 63 63 63 62 63 63 63 62 60
65 64 65 64 63 63 63 63 63 64 64 64 64 65 66 67 66 65 66 65 64 65 65 66 64 64 64 64 64 63 62 61 62 62 61 60 61 60 60 60 60 59 59 59 60 59 60 61 56 56 55 56 55 59 60 62 64 64 64 62 61 61 59
65 65 64 63 62 62 64 63 62 62 63 64 65 64 64 65 64 64 64 65 66 67 66 66 64 65 64 63 64 65 64 63 62 61 61 62 61 61 62 60 60 60 58 57 58 57 57 56 55 55 55 56 56 57 60 60 63 64 64 61 61 59 58
66 66 65 64 64 64 63 63 62 62 63 63 64 63 63 63 64 64 64 64 63 63 63 64 65 65 65 64 63 64 64 63 63 63 62 61 62 61 62 61 60 61 59 59 59 59 59 58 58 56 55 58 58 57 63 59 63 63 62 62 61 60 59
67 66 66 64 64 64 63 63 63 62 62 63 62 64 64 64 62 63 64 64 63 63 64 64 64 65 65 65 64 63 63 63 62 63 62 61 61 61 59 60 61 61 61 60 61 60 60 60 59 56 57 58 53 57 60 60 59 61 63 62 62 61 60
66 66 65 65 65 64 64 63 63 63 62 63 63 62 62 63 64 65 64 63 63 62 63 63 63 64 64 64 64 63 63 62 62 62 61 61 61 60 61 60 62 61 60 61 61 61 60 59 57 58 57 57 56 60 60 59 63 60 61 62 63 62 61
66 65 65 65 65 65 64 64 63 63 63 63 62 63 64 63 63 64 63 62 63 63 64 64 65 62 62 64 64 63 62 62 62 61 60 60 61 61 59 59 60 59 59 60 59 61 63 62 60 59 57 55 54 55 57 59 58 57 60 60 63 62 61
66 65 63 64 64 64 64 64 63 63 63 62 63 63 63 64 63 63 63 64 63 62 62 63 63 62 62 62 61 62 62 65 62 61 60 61 61 60 59 59 62 61 61 62 63 60 61 64 64 60 60 60 55 52 53 54 56 57 63 59 61 62 61
64 64 64 64 64 63 64 64 63 63 63 63 64 63 62 60 61 61 62 61 62 63 63 63 62 62 61 61 61 59 60 60 61 61 60 60 57 58 59 60 59 60 60 61 62 61 62 63 62 61 59 60 59 54 51 50 54 51 60 60 57 61 62
64 64 64 64 63 64 63 63 63 62 63 64 64 63 62 62 63 64 61 60 60 61 62 63 63 62 62 60 61 60 59 59 59 59 59 60 61 61 61 61 62 60 60 61 60 60 61 62 61 61 59 58 59 58 49 50 52 53 55 58 57 59 61
64 64 63 63 64 64 63 62 63 62 62 62 62 62 62 62 61 60 60 59 60 61 61 60 60 60 61 60 60 59 58 58 58 59 60 61 59 61 60 59 57 59 59 60 60 62 62 62 61 62 59 59 58 60 57 52 50 56 54 55 59 61 60
64 64 63 63 63 63 63 63 62 61 61 61 61 61 61 61 61 60 59 60 60 60 61 60 61 60 60 60 59 61 58 59 59 58 59 61 65 61 58 58 58 59 59 60 61 62 60 61 61 60 61 59 59 58 57 54 52 55 55 53 56 59 62
63 63 63 63 63 61 61 62 62 62 61 61 60 60 60 61 61 60 60 60 59 58 59 60 60 59 58 57 57 59 58 59 60 58 60 60 61 60 60 58 58 58 57 59 57 58 61 60 60 60 60 59 58 59 59 56 55 53 57 56 55 59 60
63 63 62 61 61 61 61 61 61 61 61 60 60 60 61 61 60 61 60 60 59 59 60 59 58 58 58 57 57 61 60 59 58 58 57 59 59 61 58 58 60 58 58 60 59 64 61 63 64 61 59 60 58 59 57 55 52 51 54 57 59 59 59
63 62 61 60 60 61 60 60 61 60 60 61 59 60 62 61 61 60 59 60 60 60 60 59 57 59 59 59 58 58 59 58 57 58 59 59 60 59 58 57 58 58 61 58 57 58 59 61 63 63 59 60 60 59 60 60 54 52 54 55 53 57 57
62 61 61 60 60 59 60 60 60 60 61 60 62 59 59 61 60 58 60 59 60 59 59 58 60 61 60 58 59 60 59 58 58 59 60 60 60 60 58 58 59 57 56 57 57 56 58 60 60 57 59 58 58 59 57 58 59 52 53 55 55 60 59
62 61 61 60 60 60 60 61 60 60 59 60 60 59 60 60 59 60 61 60 59 59 59 60 61 59 58 58 60 60 60 59 59 60 60 61 62 59 58 57 59 58 56 58 56 58 58 58 61 60 58 58 58 57 58 58 58 58 56 55 55 57 58
62 61 61 61 61 61 61 61 60 60 60 60 58 59 60 60 62 61 61 61 61 60 60 60 61 59 59 59 60 60 60 59 59 58 60 61 61 61 60 59 58 57 56 56 57 57 56 57 58 58 58 59 59 56 56 57 55 54 55 55 54 57 56
61 62 62 61 61 62 62 62 61 61 61 60 59 59 60 60 59 60 61 61 62 62 62 62 62 60 60 59 60 61 60 58 58 60 60 60 61 60 59 60 57 57 57 56 56 56 55 55 57 56 57 57 58 55 54 55 57 55 55 56 55 54 56
61 62 61 61 61 62 61 60 61 60 61 60 60 59 60 60 59 59 61 60 61 62 62 61 61 62 63 60 61 59 60 59 60 61 59 58 59 60 60 60 59 59 58 57 57 55 56 56 55 55 55 56 55 55 54 53 52 52 52 52 54 54 51
63 61 61 60 61 60 61 61 62 61 60 60 63 62 59 60 60 59 60 59 60 61 62 62 62 63 61 61 60 60 60 60 60 59 58 58 58 59 58 58 58 57 59 60 56 56 57 58 57 55 56 53 53 55 54 53 53 52 51 51 52 51 51
59 62 62 62 61 60 60 61 63 62 62 60 61 61 61 59 59 60 59 59 58 61 61 62 61 58 58 62 60 63 61 60 59 58 58 57 57 57 58 57 58 60 58 56 52 48 48 51 55 56 54 54 55 54 53 53 52 52 52 52 51 51 48
58 57 59 61 61 61 60 60 59 60 60 61 60 60 60 60 59 59 61 59 58 60 61 64 54 51 52 55 62 60 60 58 57 58 58 57 57 57 55 56 55 57 57 56 51 47 46 46 47 47 48 50 54 56 54 53 51 51 52 52 51 48 45
58 58 57 58 60 60 59 59 58 57 58 59 59 58 60 60 59 59 60 59 56 55 54 54 49 50 50 51 56 61 60 59 59 58 58 58 58 57 56 56 54 56 56 55 55 50 47 43 43 43 43 44 44 45 50 54 53 51 49 50 48 48 47
58 57 57 58 59 57 57 57 57 57 56 56 57 58 58 58 57 57 56 55 54 54 54 47 48 49 49 49 51 57 60 60 59 58 58 58 57 57 56 55 55 56 59 58 58 55 51 47 43 42 42 43 43 44 45 47 49 50 50 50 49 47 47
59 58 58 57 57 56 56 56 57 56 56 57 56 56 57 58 58 55 54 53 52 53 53 47 48 48 47 47 48 53 61 60 60 60 59 58 57 57 57 56 56 55 54 55 55 55 52 49 47 47 48 49 48 45 44 45 45 46 48 51 50 49 50
57 57 57 56 56 55 55 54 56 55 56 57 56 56 57 56 57 55 53 53 51 52 54 45 45 46 47 48 46 52 59 60 59 58 58 57 56 56 56 57 56 56 55 54 56 55 53 51 50 50 49 49 47 47 45 45 46 50 51 51 50 50 49
55 54 54 54 55 55 54 55 55 54 54 54 54 55 55 56 55 54 54 52 52 52 54 47 42 43 44 44 44 53 55 56 56 57 57 56 56 56 57 57 56 55 55 54 51 47 51 53 52 52 51 49 46 43 43 44 41 45 48 49 48 48 47
54 55 54 54 54 54 54 54 54 54 54 52 52 54 56 55 55 55 53 53 52 52 53 51 45 43 42 41 46 52 53 53 53 54 55 55 55 57 57 57 57 56 54 52 46 44 47 49 55 54 52 49 47 45 44 44 41 41 42 43 43 42 41
53 54 54 54 54 54 54 55 55 55 54 54 55 56 54 55 54 54 54 54 54 53 53 52 47 44 43 41 47 53 52 54 52 53 53 55 54 53 52 53 57 55 53 51 41 44 44 51 54 53 52 50 48 45 42 44 45 43 41 40 40 40 40
52 53 53 53 53 53 54 54 55 55 54 54 54 53 56 55 54 54 55 56 55 55 54 53 48 46 44 43 46 51 52 53 52 51 53 54 53 51 51 50 50 53 54 47 41 44 42 48 55 53 52 50 48 47 45 43 43 42 43 43 44 43 43
52 52 53 53 53 53 54 55 55 55 54 55 54 53 53 52 54 55 55 54 56 56 55 54 52 46 46 44 44 51 52 52 52 50 52 53 53 50 48 45 44 43 43 40 40 41 43 45 52 54 53 51 49 48 47 45 44 44 43 43 42 42 43
49 50 52 53 53 53 53 53 54 54 53 53 53 53 52 53 54 53 54 54 54 55 56 56 54 46 45 45 43 45 51 52 51 52 51 51 51 49 45 43 42 40 39 40 40 41 42 44 47 54 53 51 50 49 48 48 45 45 45 44 43 43 42
51 52 53 52 51 51 52 53 53 53 53 52 52 51 51 52 53 54 55 54 53 54 54 54 56 48 44 44 43 43 49 52 53 53 50 50 49 46 43 43 43 40 39 40 40 40 41 41 43 49 46 42 42 44 51 49 48 46 46 45 43 42 42
51 52 51 50 49 48 48 49 50 50 51 51 51 51 51 52 52 53 54 54 53 54 55 54 49 52 47 44 44 42 44 49 46 52 52 49 48 45 43 43 43 41 40 40 40 41 41 41 42 41 39 40 41 42 45 47 45 46 44 43 43 43 42
49 47 47 47 47 46 46 46 47 48 48 48 48 49 49 50 50 51 52 53 53 52 53 54 50 48 50 46 44 43 42 44 45 50 52 50 47 45 43 42 42 40 40 40 40 41 41 42 42 39 40 40 41 43 48 46 44 44 41 41 44 42 43

ECMWFFLT1_sfc_temp_030.txt.gz
Temp
65 63 62 62 61 63 62 62 62 61 62 62 63 62 63 63 62 61 61 61 62 62 63 62 62 62 62 62 61 60 60 60 59 59 57 57 59 57 58 58 58 59 58 57 58 56 54 53 54 59 58 57 59 59 60 60 60 60 59 58 59 58 55
65 64 62 62 61 61 60 60 61 61 62 62 62 62 61 63 63 62 61 61 60 61 63 62 61 63 62 62 60 59 60 59 58 58 59 58 58 57 57 56 58 58 58 58 57 55 53 54 52 55 56 57 58 56 58 59 59 59 59 58 59 57 56
63 62 62 61 60 60 61 60 60 60 60 60 61 61 60 61 61 62 62 62 61 61 62 61 61 62 61 62 61 60 59 59 58 59 59 58 59 59 58 58 57 56 58 58 56 56 57 56 55 56 55 56 53 54 56 57 59 58 58 57 56 56 54
63 62 62 61 60 60 61 59 60 61 61 62 61 60 61 61 60 61 60 59 60 63 63 62 61 62 61 61 61 60 60 59 59 58 58 58 59 59 58 58 59 60 58 56 57 56 54 53 53 53 53 55 56 54 57 57 58 58 57 55 55 54 53
64 64 63 61 61 62 61 60 59 60 60 60 60 60 60 61 61 60 60 60 61 61 61 62 62 62 62 61 61 61 60 59 59 60 59 59 58 59 58 58 58 58 57 59 59 58 57 56 56 54 54 54 55 55 58 55 57 56 56 56 56 55 53
64 64 63 62 62 62 60 59 59 59 59 60 59 61 59 60 61 61 60 60 60 60 61 61 61 62 62 62 62 61 60 60 60 60 59 59 59 59 58 56 58 58 58 59 59 57 57 56 57 53 54 51 51 53 55 55 53 56 55 56 56 55 55
63 63 62 62 60 60 60 60 59 59 59 60 59 60 58 60 60 61 60 59 59 59 61 61 61 61 61 61 60 60 59 59 60 59 58 57 57 57 58 57 57 57 56 58 58 58 57 56 54 56 54 51 51 57 55 53 56 54 57 58 57 56 55
65 64 63 61 60 60 59 60 59 58 59 58 58 58 59 59 58 59 60 60 60 60 59 60 61 60 60 61 61 60 59 59 59 59 57 58 58 57 56 56 57 56 55 57 58 60 60 59 58 56 56 53 50 51 53 53 52 51 54 55 57 56 55
64 63 62 61 60 60 60 60 59 59 59 58 58 58 59 59 59 59 59 58 58 59 59 59 59 60 59 60 59 59 59 61 58 56 55 56 56 55 55 55 57 57 56 57 59 60 61 60 58 56 58 58 54 49 50 51 50 53 57 54 57 57 56
62 61 61 59 59 59 60 59 60 59 59 60 60 58 58 58 58 57 58 58 59 58 58 58 58 58 59 60 59 58 58 57 58 57 55 57 55 56 56 56 56 56 56 56 59 61 60 58 58 55 58 59 57 54 48 46 49 48 55 53 53 56 57
61 61 60 59 59 59 58 59 59 59 60 61 61 59 58 58 59 60 58 57 57 57 58 58 59 58 58 57 57 57 56 56 56 55 56 57 56 56 56 55 56 56 55 57 58 58 59 58 57 58 55 56 58 57 49 48 48 46 52 54 51 55 56
60 60 59 60 60 60 59 59 60 59 58 58 60 58 57 58 57 57 56 56 57 57 57 57 57 58 58 57 56 56 55 56 57 56 56 58 56 57 56 56 56 56 56 57 58 59 59 58 57 56 55 55 56 57 54 51 49 51 51 55 54 55 57
61 61 60 60 60 60 60 60 59 58 58 58 57 57 57 57 57 56 56 57 56 56 57 56 58 57 57 58 57 58 55 58 58 57 56 56 60 56 55 56 54 57 56 57 58 58 56 56 57 57 57 56 53 54 55 52 52 53 50 48 51 55 58
60 60 60 60 60 59 59 59 59 58 57 57 57 57 57 56 56 56 56 57 56 56 57 56 56 56 57 55 55 56 54 57 57 55 55 55 55 55 55 55 54 55 55 57 55 56 56 56 55 56 57 56 54 55 57 52 52 51 55 50 52 57 56
60 60 59 59 59 59 58 58 58 57 58 56 56 57 57 56 55 56 56 55 55 56 56 56 55 56 56 55 54 57 56 56 55 54 55 55 54 56 53 55 55 54 55 56 55 59 59 58 59 57 56 58 57 56 55 52 50 50 52 55 56 55 55
61 60 59 58 59 59 58 58 58 59 57 56 56 58 57 56 56 55 56 55 55 55 55 55 54 55 54 55 56 55 56 55 55 55 56 55 56 54 54 54 54 55 57 57 54 54 55 57 58 59 56 56 57 56 54 56 52 51 53 53 51 55 53
62 61 60 59 59 59 58 58 57 59 58 56 57 56 56 56 55 55 56 55 55 55 55 54 54 54 55 55 56 57 54 54 55 56 57 56 56 56 56 55 54 54 55 55 53 54 54 55 55 55 55 54 55 56 53 54 56 50 50 54 52 56 55
61 60 60 59 59 58 58 58 57 59 57 56 55 56 56 55 55 55 56 55 55 54 54 54 54 54 54 54 55 55 54 54 54 56 57 57 58 56 55 56 55 54 56 55 53 55 56 56 56 56 54 53 54 53 55 56 54 51 53 54 54 53 52
58 59 60 60 60 59 59 58 58 57 58 57 54 55 56 55 58 57 56 55 55 54 54 54 55 55 55 54 55 55 55 55 56 56 55 56 56 56 57 57 55 55 56 57 56 54 54 55 56 56 56 55 54 52 52 52 53 53 54 53 53 55 53
60 59 59 59 59 59 59 58 58 58 57 57 56 56 55 56 55 58 58 56 56 56 56 56 55 54 55 55 57 57 56 55 55 55 55 56 56 55 55 56 54 55 57 57 56 55 54 53 56 55 56 56 55 53 52 51 52 53 51 51 50 50 51
59 61 61 60 59 59 59 58 58 57 56 56 56 57 56 57 57 57 58 57 58 56 56 56 55 54 55 56 57 56 56 56 55 55 55 56 56 56 56 56 55 54 55 55 56 54 55 55 54 54 53 54 53 53 52 51 50 51 50 49 50 50 48
58 59 61 61 60 59 59 58 58 57 57 58 58 58 58 56 56 56 56 57 57 56 58 59 59 57 56 56 55 56 55 55 55 55 54 54 54 55 55 54 54 53 56 59 56 56 56 57 57 55 52 52 52 52 50 50 52 50 49 50 50 47 46
57 56 58 59 59 60 60 58 57 57 58 58 58 58 58 56 57 57 57 55 56 57 58 59 60 56 56 59 56 58 56 54 54 54 55 54 53 54 55 54 56 60 58 57 54 51 50 52 56 57 55 53 53 53 52 51 50 50 51 50 48 46 47
56 56 56 57 57 57 57 57 57 57 56 57 57 57 58 57 55 56 57 57 56 57 58 59 54 49 49 52 58 57 56 55 54 55 55 55 55 55 53 53 54 57 56 56 52 47 47 48 48 49 51 53 55 54 53 51 51 50 51 51 47 46 45
56 55 56 56 56 56 56 56 56 55 56 57 56 56 58 57 55 54 55 54 55 58 58 56 50 48 49 49 54 59 57 56 55 55 55 56 56 55 55 54 52 54 53 52 50 48 47 45 44 44 44 46 47 47 49 54 52 51 52 52 50 49 46
55 55 55 55 55 55 54 55 55 56 56 56 55 55 54 54 54 53 53 53 53 54 55 54 50 47 47 47 49 56 59 58 56 55 55 55 55 55 54 54 53 54 56 57 54 49 48 46 44 43 43 44 45 46 45 47 46 53 53 53 52 48 48
54 54 54 54 54 54 54 54 54 53 53 54 54 54 53 54 53 53 52 52 52 51 50 48 45 46 46 45 45 50 60 58 58 57 57 56 56 55 55 54 54 54 52 53 52 50 49 47 45 45 46 46 46 45 44 44 45 46 50 54 52 51 47
52 53 54 53 53 53 52 52 53 52 53 53 53 54 54 54 52 52 53 51 51 52 52 48 43 44 45 45 45 44 53 57 58 57 57 57 56 56 56 56 55 55 54 53 54 52 50 48 47 47 46 47 46 46 46 46 47 47 46 48 50 50 48
50 50 51 51 51 50 50 50 51 51 51 51 51 51 52 52 53 55 55 53 52 53 54 47 42 42 44 44 45 52 53 54 55 55 55 55 55 56 56 56 55 55 54 53 51 47 49 51 51 50 50 48 46 45 44 43 40 41 46 47 48 48 47
49 49 49 49 49 49 49 50 49 50 48 48 48 50 51 52 51 51 52 53 54 54 53 50 43 41 42 43 45 53 55 55 55 55 54 54 54 55 56 56 56 55 54 53 49 44 45 48 52 51 50 48 46 46 45 45 42 41 43 43 44 44 44
49 49 48 48 47 47 47 47 48 49 48 48 48 50 50 50 51 50 50 50 51 51 53 51 44 42 42 41 46 54 54 54 54 54 52 53 53 53 54 55 56 55 54 53 45 42 43 48 51 50 49 47 47 46 45 46 46 43 41 41 41 41 41
49 48 48 47 47 46 46 47 46 46 47 46 46 47 48 49 48 47 48 49 53 52 52 51 47 43 42 42 45 50 51 52 52 50 52 51 50 50 49 50 53 53 54 50 42 42 42 48 53 51 50 48 47 46 44 45 45 44 43 43 42 42 41
49 49 48 48 47 47 46 46 46 47 46 48 48 47 48 47 48 48 47 48 49 50 51 52 52 46 44 43 43 50 50 51 51 50 50 52 53 50 48 48 47 44 45 45 42 42 42 45 52 51 49 47 46 45 45 44 44 45 45 46 45 41 40
49 50 49 48 48 47 47 47 47 47 48 48 47 48 49 49 49 49 50 50 48 48 50 51 52 47 46 45 43 44 50 51 51 51 50 50 51 51 48 46 44 42 42 42 41 41 42 43 47 51 50 48 47 47 45 45 44 44 45 43 43 41 41
49 49 49 48 46 46 46 46 47 46 45 45 45 45 45 46 47 47 48 48 47 47 49 50 50 48 46 46 44 43 48 51 51 52 50 50 50 50 49 48 45 42 40 41 41 42 42 42 43 49 49 44 42 42 48 48 46 44 43 43 42 41 40
45 47 46 45 45 44 44 44 44 44 44 44 44 43 43 43 43 44 45 46 46 47 47 47 47 48 46 45 45 43 43 47 45 50 51 51 50 51 49 46 44 42 40 40 41 42 42 42 43 46 43 41 40 42 45 47 45 44 43 43 44 42 40
44 44 44 44 43 43 43 43 43 44 43 43 42 42 41 41 42 42 42 43 45 46 47 47 46 46 46 45 44 44 42 41 43 49 52 52 51 49 45 44 43 39 40 41 41 41 40 42 44 39 40 41 41 43 46 44 44 44 42 41 42 42 41